Wetterdaten: Samstag, 12.10.2019
Datum Zeit Temp. Aussen Temp. o. S. Temp +5cm Feuchte Auss Luftdruck Regen Sonnenschein Regendauer Solar Windben Empfang
12.10.2019 00:00 17,4 C 16,7 C 16,1 C 79 % 1010,5 hPa 0,0 l/m 0 min 0 min 0 W/m 19,3 km/h (3 Bft) 97,87 %
12.10.2019 00:02 17,4 C 16,7 C 16,1 C 79 % 1010,6 hPa 0,0 l/m 0 min 0 min 0 W/m 22,5 km/h (4 Bft) 97,83 %
12.10.2019 00:04 17,4 C 16,7 C 16,1 C 79 % 1010,6 hPa 0,0 l/m 0 min 0 min 0 W/m 22,5 km/h (4 Bft) 100,00 %
12.10.2019 00:08 17,5 C 16,7 C 16,1 C 79 % 1010,6 hPa 0,0 l/m 0 min 0 min 0 W/m 32,2 km/h (5 Bft) 100,00 %
12.10.2019 00:10 17,5 C 16,7 C 16,1 C 79 % 1010,5 hPa 0,0 l/m 0 min 0 min 0 W/m 32,2 km/h (5 Bft) 100,00 %
12.10.2019 00:12 17,5 C 16,7 C 16,1 C 79 % 1010,5 hPa 0,0 l/m 0 min 0 min 0 W/m 25,7 km/h (4 Bft) 100,00 %
12.10.2019 00:14 17,5 C 16,7 C 16,1 C 79 % 1010,5 hPa 0,0 l/m 0 min 0 min 0 W/m 22,5 km/h (4 Bft) 100,00 %
12.10.2019 00:16 17,6 C 16,7 C 16,1 C 79 % 1010,5 hPa 0,0 l/m 0 min 0 min 0 W/m 16,1 km/h (3 Bft) 100,00 %
12.10.2019 00:18 17,6 C 16,7 C 16,1 C 79 % 1010,4 hPa 0,0 l/m 0 min 0 min 0 W/m 22,5 km/h (4 Bft) 96,30 %
12.10.2019 00:20 17,6 C 16,7 C 16,1 C 79 % 1010,4 hPa 0,0 l/m 0 min 0 min 0 W/m 19,3 km/h (3 Bft) 97,83 %
12.10.2019 00:22 17,6 C 16,7 C 16,1 C 79 % 1010,4 hPa 0,0 l/m 0 min 0 min 0 W/m 19,3 km/h (3 Bft) 97,87 %
12.10.2019 00:24 17,6 C 16,7 C 16,1 C 79 % 1010,3 hPa 0,0 l/m 0 min 0 min 0 W/m 25,7 km/h (4 Bft) 100,00 %
12.10.2019 00:26 17,6 C 16,7 C 16,1 C 79 % 1010,3 hPa 0,0 l/m 0 min 0 min 0 W/m 16,1 km/h (3 Bft) 95,92 %
12.10.2019 00:28 17,6 C 16,7 C 16,1 C 79 % 1010,3 hPa 0,0 l/m 0 min 0 min 0 W/m 29,0 km/h (5 Bft) 95,65 %
12.10.2019 00:30 17,6 C 16,7 C 16,1 C 79 % 1010,3 hPa 0,0 l/m 0 min 0 min 0 W/m 16,1 km/h (3 Bft) 97,87 %
12.10.2019 00:32 17,6 C 16,7 C 16,1 C 79 % 1010,2 hPa 0,0 l/m 0 min 0 min 0 W/m 22,5 km/h (4 Bft) 98,15 %
12.10.2019 00:34 17,6 C 16,7 C 16,1 C 79 % 1010,1 hPa 0,0 l/m 0 min 0 min 0 W/m 29,0 km/h (5 Bft) 97,37 %
12.10.2019 00:36 17,6 C 16,7 C 16,1 C 79 % 1010,2 hPa 0,0 l/m 0 min 0 min 0 W/m 22,5 km/h (4 Bft) 97,87 %
12.10.2019 00:38 17,6 C 16,7 C 16,1 C 79 % 1010,1 hPa 0,0 l/m 0 min 0 min 0 W/m 48,3 km/h (6 Bft) 97,96 %
12.10.2019 00:40 17,6 C 16,7 C 16,1 C 79 % 1010,1 hPa 0,0 l/m 0 min 0 min 0 W/m 19,3 km/h (3 Bft) 97,87 %
12.10.2019 00:42 17,6 C 16,7 C 16,1 C 79 % 1010,1 hPa 0,0 l/m 0 min 0 min 0 W/m 22,5 km/h (4 Bft) 95,65 %
12.10.2019 00:44 17,6 C 16,7 C 16,1 C 79 % 1010,0 hPa 0,0 l/m 0 min 0 min 0 W/m 12,9 km/h (3 Bft) 98,15 %
12.10.2019 00:46 17,6 C 16,7 C 16,1 C 79 % 1010,1 hPa 0,0 l/m 0 min 0 min 0 W/m 22,5 km/h (4 Bft) 97,37 %
12.10.2019 00:48 17,6 C 16,7 C 16,1 C 79 % 1009,9 hPa 0,0 l/m 0 min 0 min 0 W/m 16,1 km/h (3 Bft) 97,96 %
12.10.2019 00:50 17,6 C 16,7 C 16,1 C 79 % 1009,9 hPa 0,0 l/m 0 min 0 min 0 W/m 19,3 km/h (3 Bft) 97,87 %
12.10.2019 00:52 17,6 C 16,7 C 16,1 C 79 % 1009,9 hPa 0,0 l/m 0 min 0 min 0 W/m 22,5 km/h (4 Bft) 98,15 %
12.10.2019 00:54 17,6 C 16,7 C 16,1 C 79 % 1009,9 hPa 0,0 l/m 0 min 0 min 0 W/m 25,7 km/h (4 Bft) 97,87 %
12.10.2019 00:56 17,6 C 16,7 C 16,1 C 79 % 1009,8 hPa 0,0 l/m 0 min 0 min 0 W/m 19,3 km/h (3 Bft) 94,74 %
12.10.2019 00:58 17,6 C 16,7 C 16,1 C 80 % 1009,8 hPa 0,0 l/m 0 min 0 min 0 W/m 16,1 km/h (3 Bft) 97,92 %
12.10.2019 01:00 17,6 C 16,1 C 15,6 C 80 % 1009,9 hPa 0,0 l/m 0 min 0 min 0 W/m 25,7 km/h (4 Bft) 95,74 %
12.10.2019 01:02 17,6 C 16,1 C 15,6 C 80 % 1009,9 hPa 0,0 l/m 0 min 0 min 0 W/m 22,5 km/h (4 Bft) 95,74 %
12.10.2019 01:04 17,5 C 16,1 C 15,6 C 80 % 1009,9 hPa 0,0 l/m 0 min 0 min 0 W/m 22,5 km/h (4 Bft) 98,15 %
12.10.2019 01:06 17,5 C 16,1 C 15,6 C 80 % 1009,8 hPa 0,0 l/m 0 min 0 min 0 W/m 25,7 km/h (4 Bft) 97,37 %
12.10.2019 01:08 17,4 C 16,1 C 15,6 C 80 % 1009,8 hPa 0,0 l/m 0 min 0 min 0 W/m 19,3 km/h (3 Bft) 97,92 %
12.10.2019 01:10 17,4 C 16,1 C 15,6 C 80 % 1009,8 hPa 0,0 l/m 0 min 0 min 0 W/m 25,7 km/h (4 Bft) 95,74 %
12.10.2019 01:12 17,4 C 16,1 C 15,6 C 80 % 1009,8 hPa 0,0 l/m 0 min 0 min 0 W/m 19,3 km/h (3 Bft) 100,00 %
12.10.2019 01:14 17,3 C 16,1 C 15,6 C 80 % 1009,6 hPa 0,0 l/m 0 min 0 min 0 W/m 22,5 km/h (4 Bft) 100,00 %
12.10.2019 01:16 17,3 C 15,6 C 15,6 C 80 % 1009,6 hPa 0,0 l/m 0 min 0 min 0 W/m 25,7 km/h (4 Bft) 100,00 %
12.10.2019 01:18 17,3 C 15,6 C 15,6 C 80 % 1009,6 hPa 0,0 l/m 0 min 0 min 0 W/m 25,7 km/h (4 Bft) 97,87 %
12.10.2019 01:20 17,2 C 15,6 C 15,0 C 80 % 1009,6 hPa 0,0 l/m 0 min 0 min 0 W/m 12,9 km/h (3 Bft) 100,00 %
12.10.2019 01:22 17,2 C 15,6 C 15,0 C 81 % 1009,5 hPa 0,0 l/m 0 min 0 min 0 W/m 16,1 km/h (3 Bft) 97,37 %
12.10.2019 01:24 17,2 C 15,6 C 15,0 C 81 % 1009,5 hPa 0,0 l/m 0 min 0 min 0 W/m 16,1 km/h (3 Bft) 97,96 %
12.10.2019 01:26 17,1 C 15,6 C 15,0 C 81 % 1009,5 hPa 0,0 l/m 0 min 0 min 0 W/m 16,1 km/h (3 Bft) 97,87 %
12.10.2019 01:28 17,1 C 15,6 C 15,0 C 81 % 1009,5 hPa 0,0 l/m 0 min 0 min 0 W/m 12,9 km/h (3 Bft) 98,15 %
12.10.2019 01:30 17,1 C 15,6 C 15,0 C 81 % 1009,4 hPa 0,0 l/m 0 min 0 min 0 W/m 16,1 km/h (3 Bft) 97,83 %
12.10.2019 01:32 17,0 C 15,0 C 15,0 C 81 % 1009,4 hPa 0,0 l/m 0 min 0 min 0 W/m 12,9 km/h (3 Bft) 95,74 %
12.10.2019 01:34 16,9 C 15,6 C 15,0 C 81 % 1009,4 hPa 0,0 l/m 0 min 0 min 0 W/m 16,1 km/h (3 Bft) 97,37 %
12.10.2019 01:36 16,9 C 15,6 C 15,0 C 81 % 1009,5 hPa 0,0 l/m 0 min 0 min 0 W/m 16,1 km/h (3 Bft) 97,96 %
12.10.2019 01:38 16,8 C 15,0 C 15,0 C 82 % 1009,5 hPa 0,0 l/m 0 min 0 min 0 W/m 12,9 km/h (3 Bft) 97,83 %
12.10.2019 01:40 16,8 C 15,0 C 15,0 C 82 % 1009,5 hPa 0,0 l/m 0 min 0 min 0 W/m 22,5 km/h (4 Bft) 98,18 %
12.10.2019 01:42 16,8 C 15,0 C 15,0 C 82 % 1009,5 hPa 0,0 l/m 0 min 0 min 0 W/m 12,9 km/h (3 Bft) 97,83 %
12.10.2019 01:44 16,7 C 15,0 C 14,4 C 82 % 1009,5 hPa 0,0 l/m 0 min 0 min 0 W/m 12,9 km/h (3 Bft) 95,74 %
12.10.2019 01:46 16,7 C 15,0 C 14,4 C 82 % 1009,5 hPa 0,0 l/m 0 min 0 min 0 W/m 19,3 km/h (3 Bft) 97,87 %
12.10.2019 01:48 16,6 C 15,0 C 15,0 C 82 % 1009,5 hPa 0,0 l/m 0 min 0 min 0 W/m 16,1 km/h (3 Bft) 100,00 %
12.10.2019 01:50 16,6 C 15,0 C 15,0 C 82 % 1009,5 hPa 0,0 l/m 0 min 0 min 0 W/m 16,1 km/h (3 Bft) 93,75 %
12.10.2019 01:52 16,6 C 15,0 C 14,4 C 82 % 1009,5 hPa 0,0 l/m 0 min 0 min 0 W/m 16,1 km/h (3 Bft) 97,87 %
12.10.2019 01:54 16,5 C 15,0 C 14,4 C 82 % 1009,4 hPa 0,0 l/m 0 min 0 min 0 W/m 12,9 km/h (3 Bft) 98,15 %
12.10.2019 01:56 16,5 C 15,0 C 14,4 C 82 % 1009,4 hPa 0,0 l/m 0 min 0 min 0 W/m 19,3 km/h (3 Bft) 94,74 %
12.10.2019 01:58 16,4 C 15,0 C 14,4 C 83 % 1009,5 hPa 0,0 l/m 0 min 0 min 0 W/m 12,9 km/h (3 Bft) 95,92 %
12.10.2019 02:00 16,4 C 15,0 C 14,4 C 83 % 1009,4 hPa 0,0 l/m 0 min 0 min 0 W/m 12,9 km/h (3 Bft) 95,74 %
12.10.2019 02:02 16,3 C 15,0 C 14,4 C 83 % 1009,5 hPa 0,0 l/m 0 min 0 min 0 W/m 12,9 km/h (3 Bft) 96,30 %
12.10.2019 02:04 16,3 C 15,0 C 14,4 C 83 % 1009,5 hPa 0,0 l/m 0 min 0 min 0 W/m 16,1 km/h (3 Bft) 94,74 %
12.10.2019 02:06 16,3 C 15,0 C 14,4 C 83 % 1009,4 hPa 0,0 l/m 0 min 0 min 0 W/m 12,9 km/h (3 Bft) 95,74 %
12.10.2019 02:08 16,3 C 15,0 C 14,4 C 83 % 1009,5 hPa 0,0 l/m 0 min 0 min 0 W/m 16,1 km/h (3 Bft) 95,83 %
12.10.2019 02:10 16,2 C 15,0 C 14,4 C 83 % 1009,4 hPa 0,0 l/m 0 min 0 min 0 W/m 16,1 km/h (3 Bft) 97,87 %
12.10.2019 02:12 16,2 C 15,0 C 14,4 C 83 % 1009,5 hPa 0,0 l/m 0 min 0 min 0 W/m 12,9 km/h (3 Bft) 98,15 %
12.10.2019 02:14 16,2 C 15,0 C 14,4 C 83 % 1009,4 hPa 0,0 l/m 0 min 0 min 0 W/m 12,9 km/h (3 Bft) 97,37 %
12.10.2019 02:16 16,2 C 15,0 C 14,4 C 83 % 1009,4 hPa 0,0 l/m 0 min 0 min 0 W/m 12,9 km/h (3 Bft) 97,87 %
12.10.2019 02:18 16,2 C 15,0 C 14,4 C 83 % 1009,4 hPa 0,0 l/m 0 min 0 min 0 W/m 12,9 km/h (3 Bft) 97,92 %
12.10.2019 02:20 16,2 C 15,0 C 14,4 C 83 % 1009,4 hPa 0,0 l/m 0 min 0 min 0 W/m 16,1 km/h (3 Bft) 97,87 %
12.10.2019 02:22 16,1 C 15,0 C 14,4 C 83 % 1009,3 hPa 0,0 l/m 0 min 0 min 0 W/m 12,9 km/h (3 Bft) 96,30 %
12.10.2019 02:24 16,1 C 15,0 C 14,4 C 83 % 1009,4 hPa 0,0 l/m 0 min 0 min 0 W/m 16,1 km/h (3 Bft) 100,00 %
12.10.2019 02:26 16,1 C 15,0 C 14,4 C 83 % 1009,4 hPa 0,0 l/m 0 min 0 min 0 W/m 12,9 km/h (3 Bft) 95,83 %
12.10.2019 02:28 16,1 C 15,0 C 14,4 C 83 % 1009,4 hPa 0,0 l/m 0 min 0 min 0 W/m 12,9 km/h (3 Bft) 95,74 %
12.10.2019 02:30 16,1 C 15,0 C 14,4 C 83 % 1009,4 hPa 0,0 l/m 0 min 0 min 0 W/m 12,9 km/h (3 Bft) 98,15 %
12.10.2019 02:32 16,1 C 15,0 C 14,4 C 83 % 1009,4 hPa 0,0 l/m 0 min 0 min 0 W/m 6,4 km/h (2 Bft) 97,37 %
12.10.2019 02:34 16,0 C 15,0 C 14,4 C 83 % 1009,4 hPa 0,0 l/m 0 min 0 min 0 W/m 12,9 km/h (3 Bft) 97,96 %
12.10.2019 02:36 16,0 C 15,0 C 14,4 C 83 % 1009,4 hPa 0,0 l/m 0 min 0 min 0 W/m 12,9 km/h (3 Bft) 97,87 %
12.10.2019 02:38 16,0 C 15,0 C 14,4 C 83 % 1009,4 hPa 0,0 l/m 0 min 0 min 0 W/m 12,9 km/h (3 Bft) 96,30 %
12.10.2019 02:40 16,0 C 15,0 C 14,4 C 83 % 1009,4 hPa 0,0 l/m 0 min 0 min 0 W/m 22,5 km/h (4 Bft) 97,37 %
12.10.2019 02:42 15,9 C 15,0 C 14,4 C 83 % 1009,4 hPa 0,0 l/m 0 min 0 min 0 W/m 12,9 km/h (3 Bft) 97,83 %
12.10.2019 02:44 15,9 C 15,0 C 14,4 C 83 % 1009,3 hPa 0,0 l/m 0 min 0 min 0 W/m 12,9 km/h (3 Bft) 95,74 %
12.10.2019 02:46 15,9 C 15,0 C 14,4 C 83 % 1009,4 hPa 0,0 l/m 0 min 0 min 0 W/m 16,1 km/h (3 Bft) 100,00 %
12.10.2019 02:48 15,9 C 15,0 C 14,4 C 83 % 1009,4 hPa 0,0 l/m 0 min 0 min 0 W/m 19,3 km/h (3 Bft) 100,00 %
12.10.2019 02:50 15,9 C 15,0 C 14,4 C 83 % 1009,4 hPa 0,0 l/m 0 min 0 min 0 W/m 19,3 km/h (3 Bft) 100,00 %
12.10.2019 02:52 15,9 C 15,0 C 14,4 C 83 % 1009,4 hPa 0,0 l/m 0 min 0 min 0 W/m 19,3 km/h (3 Bft) 100,00 %
12.10.2019 02:54 15,9 C 15,0 C 14,4 C 83 % 1009,4 hPa 0,0 l/m 0 min 0 min 0 W/m 19,3 km/h (3 Bft) 100,00 %
12.10.2019 02:56 15,9 C 15,0 C 14,4 C 83 % 1009,3 hPa 0,0 l/m 0 min 0 min 0 W/m 16,1 km/h (3 Bft) 100,00 %
12.10.2019 02:58 15,9 C 15,0 C 14,4 C 83 % 1009,4 hPa 0,0 l/m 0 min 0 min 0 W/m 19,3 km/h (3 Bft) 100,00 %
12.10.2019 03:00 15,9 C 15,0 C 14,4 C 83 % 1009,4 hPa 0,0 l/m 0 min 0 min 0 W/m 25,7 km/h (4 Bft) 100,00 %
12.10.2019 03:02 15,9 C 15,0 C 15,0 C 83 % 1009,4 hPa 0,0 l/m 0 min 0 min 0 W/m 22,5 km/h (4 Bft) 100,00 %
12.10.2019 03:04 15,9 C 15,0 C 15,0 C 83 % 1009,4 hPa 0,0 l/m 0 min 0 min 0 W/m 16,1 km/h (3 Bft) 100,00 %
12.10.2019 03:06 15,9 C 15,0 C 14,4 C 83 % 1009,4 hPa 0,0 l/m 0 min 0 min 0 W/m 12,9 km/h (3 Bft) 100,00 %
12.10.2019 03:08 15,9 C 15,0 C 14,4 C 83 % 1009,4 hPa 0,0 l/m 0 min 0 min 0 W/m 19,3 km/h (3 Bft) 100,00 %
12.10.2019 03:10 15,9 C 15,0 C 14,4 C 83 % 1009,4 hPa 0,0 l/m 0 min 0 min 0 W/m 16,1 km/h (3 Bft) 97,87 %
12.10.2019 03:12 15,9 C 15,0 C 14,4 C 83 % 1009,4 hPa 0,0 l/m 0 min 0 min 0 W/m 6,4 km/h (2 Bft) 100,00 %
12.10.2019 03:14 15,9 C 15,0 C 14,4 C 83 % 1009,4 hPa 0,0 l/m 0 min 0 min 0 W/m 12,9 km/h (3 Bft) 100,00 %
12.10.2019 03:16 15,9 C 15,0 C 14,4 C 83 % 1009,4 hPa 0,0 l/m 0 min 0 min 0 W/m 16,1 km/h (3 Bft) 100,00 %
12.10.2019 03:18 15,9 C 15,0 C 14,4 C 83 % 1009,5 hPa 0,0 l/m 0 min 0 min 0 W/m 22,5 km/h (4 Bft) 100,00 %
12.10.2019 03:20 15,9 C 15,0 C 14,4 C 83 % 1009,4 hPa 0,0 l/m 0 min 0 min 0 W/m 22,5 km/h (4 Bft) 98,15 %
12.10.2019 03:22 15,9 C 15,0 C 14,4 C 83 % 1009,4 hPa 0,0 l/m 0 min 0 min 0 W/m 16,1 km/h (3 Bft) 100,00 %
12.10.2019 03:24 15,9 C 15,0 C 14,4 C 83 % 1009,4 hPa 0,0 l/m 0 min 0 min 0 W/m 16,1 km/h (3 Bft) 97,87 %
12.10.2019 03:26 15,9 C 15,0 C 14,4 C 83 % 1009,5 hPa 0,0 l/m 0 min 0 min 0 W/m 19,3 km/h (3 Bft) 100,00 %
12.10.2019 03:28 15,9 C 15,0 C 14,4 C 83 % 1009,4 hPa 0,0 l/m 0 min 0 min 0 W/m 16,1 km/h (3 Bft) 100,00 %
12.10.2019 03:30 15,9 C 15,0 C 14,4 C 83 % 1009,3 hPa 0,0 l/m 0 min 0 min 0 W/m 16,1 km/h (3 Bft) 100,00 %
12.10.2019 03:32 15,8 C 15,0 C 14,4 C 83 % 1009,4 hPa 0,0 l/m 0 min 0 min 0 W/m 25,7 km/h (4 Bft) 97,87 %
12.10.2019 03:34 15,8 C 15,0 C 14,4 C 83 % 1009,4 hPa 0,0 l/m 0 min 0 min 0 W/m 22,5 km/h (4 Bft) 98,15 %
12.10.2019 03:36 15,8 C 15,0 C 14,4 C 83 % 1009,4 hPa 0,0 l/m 0 min 0 min 0 W/m 19,3 km/h (3 Bft) 100,00 %
12.10.2019 03:38 15,8 C 15,0 C 14,4 C 83 % 1009,3 hPa 0,0 l/m 0 min 0 min 0 W/m 12,9 km/h (3 Bft) 100,00 %
12.10.2019 03:40 15,8 C 15,0 C 14,4 C 83 % 1009,4 hPa 0,0 l/m 0 min 0 min 0 W/m 12,9 km/h (3 Bft) 100,00 %
12.10.2019 03:42 15,8 C 15,0 C 14,4 C 83 % 1009,4 hPa 0,0 l/m 0 min 0 min 0 W/m 16,1 km/h (3 Bft) 97,87 %
12.10.2019 03:44 15,8 C 14,4 C 14,4 C 83 % 1009,3 hPa 0,0 l/m 0 min 0 min 0 W/m 16,1 km/h (3 Bft) 95,74 %
12.10.2019 03:46 15,8 C 14,4 C 13,9 C 83 % 1009,3 hPa 0,0 l/m 0 min 0 min 0 W/m 19,3 km/h (3 Bft) 98,15 %
12.10.2019 03:48 15,8 C 14,4 C 13,9 C 83 % 1009,3 hPa 0,0 l/m 0 min 0 min 0 W/m 16,1 km/h (3 Bft) 97,37 %
12.10.2019 03:50 15,8 C 14,4 C 13,9 C 83 % 1009,3 hPa 0,0 l/m 0 min 0 min 0 W/m 16,1 km/h (3 Bft) 97,92 %
12.10.2019 03:52 15,8 C 14,4 C 13,9 C 83 % 1009,3 hPa 0,0 l/m 0 min 0 min 0 W/m 12,9 km/h (3 Bft) 97,87 %
12.10.2019 03:54 15,8 C 14,4 C 13,9 C 83 % 1009,3 hPa 0,0 l/m 0 min 0 min 0 W/m 22,5 km/h (4 Bft) 96,30 %
12.10.2019 03:56 15,8 C 14,4 C 13,9 C 83 % 1009,3 hPa 0,0 l/m 0 min 0 min 0 W/m 12,9 km/h (3 Bft) 97,37 %
12.10.2019 03:58 15,7 C 14,4 C 13,9 C 83 % 1009,3 hPa 0,0 l/m 0 min 0 min 0 W/m 16,1 km/h (3 Bft) 93,62 %
12.10.2019 04:00 15,7 C 14,4 C 13,9 C 83 % 1009,3 hPa 0,0 l/m 0 min 0 min 0 W/m 12,9 km/h (3 Bft) 95,74 %
12.10.2019 04:02 15,7 C 14,4 C 13,9 C 83 % 1009,2 hPa 0,0 l/m 0 min 0 min 0 W/m 6,4 km/h (2 Bft) 100,00 %
12.10.2019 04:04 15,7 C 14,4 C 13,9 C 83 % 1009,2 hPa 0,0 l/m 0 min 0 min 0 W/m 6,4 km/h (2 Bft) 93,62 %
12.10.2019 04:06 15,6 C 13,9 C 13,9 C 84 % 1009,2 hPa 0,0 l/m 0 min 0 min 0 W/m 16,1 km/h (3 Bft) 96,30 %
12.10.2019 04:08 15,6 C 13,9 C 13,9 C 84 % 1009,3 hPa 0,0 l/m 0 min 0 min 0 W/m 12,9 km/h (3 Bft) 95,74 %
12.10.2019 04:10 15,6 C 13,9 C 13,3 C 84 % 1009,2 hPa 0,0 l/m 0 min 0 min 0 W/m 12,9 km/h (3 Bft) 95,74 %
12.10.2019 04:12 15,6 C 13,9 C 13,3 C 84 % 1009,2 hPa 0,0 l/m 0 min 0 min 0 W/m 12,9 km/h (3 Bft) 95,65 %
12.10.2019 04:14 15,5 C 13,9 C 13,3 C 84 % 1009,2 hPa 0,0 l/m 0 min 0 min 0 W/m 12,9 km/h (3 Bft) 94,87 %
12.10.2019 04:16 15,5 C 13,9 C 13,3 C 84 % 1009,2 hPa 0,0 l/m 0 min 0 min 0 W/m 6,4 km/h (2 Bft) 95,83 %
12.10.2019 04:18 15,4 C 13,9 C 13,3 C 84 % 1009,2 hPa 0,0 l/m 0 min 0 min 0 W/m 16,1 km/h (3 Bft) 95,74 %
12.10.2019 04:20 15,4 C 13,9 C 13,3 C 84 % 1009,2 hPa 0,0 l/m 0 min 0 min 0 W/m 12,9 km/h (3 Bft) 98,15 %
12.10.2019 04:22 15,4 C 13,9 C 13,3 C 84 % 1009,2 hPa 0,0 l/m 0 min 0 min 0 W/m 6,4 km/h (2 Bft) 92,11 %
12.10.2019 04:24 15,3 C 13,9 C 13,3 C 84 % 1009,2 hPa 0,0 l/m 0 min 0 min 0 W/m 12,9 km/h (3 Bft) 95,74 %
12.10.2019 04:26 15,3 C 13,9 C 13,3 C 84 % 1009,2 hPa 0,0 l/m 0 min 0 min 0 W/m 16,1 km/h (3 Bft) 95,83 %
12.10.2019 04:28 15,3 C 13,9 C 13,3 C 84 % 1009,2 hPa 0,0 l/m 0 min 0 min 0 W/m 6,4 km/h (2 Bft) 95,74 %
12.10.2019 04:30 15,2 C 13,9 C 13,3 C 84 % 1009,2 hPa 0,0 l/m 0 min 0 min 0 W/m 3,2 km/h (1 Bft) 94,44 %
12.10.2019 04:32 15,2 C 13,9 C 13,3 C 84 % 1009,2 hPa 0,0 l/m 0 min 0 min 0 W/m 16,1 km/h (3 Bft) 95,74 %
12.10.2019 04:34 15,2 C 13,3 C 13,3 C 85 % 1009,2 hPa 0,0 l/m 0 min 0 min 0 W/m 6,4 km/h (2 Bft) 97,37 %
12.10.2019 04:36 15,1 C 13,3 C 13,3 C 84 % 1009,2 hPa 0,0 l/m 0 min 0 min 0 W/m 6,4 km/h (2 Bft) 93,75 %
12.10.2019 04:38 15,1 C 13,3 C 13,3 C 85 % 1009,2 hPa 0,0 l/m 0 min 0 min 0 W/m 12,9 km/h (3 Bft) 95,74 %
12.10.2019 04:40 15,1 C 13,3 C 13,3 C 85 % 1009,2 hPa 0,0 l/m 0 min 0 min 0 W/m 12,9 km/h (3 Bft) 90,74 %
12.10.2019 04:42 15,0 C 13,3 C 12,8 C 85 % 1009,1 hPa 0,0 l/m 0 min 0 min 0 W/m 6,4 km/h (2 Bft) 93,62 %
12.10.2019 04:44 14,9 C 13,3 C 12,8 C 85 % 1009,1 hPa 0,0 l/m 0 min 0 min 0 W/m 12,9 km/h (3 Bft) 94,74 %
12.10.2019 04:46 14,9 C 13,3 C 12,8 C 85 % 1009,2 hPa 0,0 l/m 0 min 0 min 0 W/m 6,4 km/h (2 Bft) 95,83 %
12.10.2019 04:48 14,9 C 13,3 C 12,8 C 85 % 1009,1 hPa 0,0 l/m 0 min 0 min 0 W/m 6,4 km/h (2 Bft) 93,62 %
12.10.2019 04:50 14,9 C 13,3 C 12,8 C 85 % 1009,1 hPa 0,0 l/m 0 min 0 min 0 W/m 6,4 km/h (2 Bft) 96,30 %
12.10.2019 04:52 14,8 C 13,3 C 12,8 C 85 % 1009,1 hPa 0,0 l/m 0 min 0 min 0 W/m 12,9 km/h (3 Bft) 94,74 %
12.10.2019 04:54 14,8 C 13,3 C 12,8 C 85 % 1009,1 hPa 0,0 l/m 0 min 0 min 0 W/m 12,9 km/h (3 Bft) 95,92 %
12.10.2019 04:56 14,8 C 13,3 C 12,8 C 85 % 1009,0 hPa 0,0 l/m 0 min 0 min 0 W/m 16,1 km/h (3 Bft) 95,65 %
12.10.2019 04:58 14,7 C 13,3 C 12,8 C 85 % 1009,0 hPa 0,0 l/m 0 min 0 min 0 W/m 16,1 km/h (3 Bft) 97,87 %
12.10.2019 05:00 14,7 C 13,3 C 12,8 C 86 % 1009,1 hPa 0,0 l/m 0 min 0 min 0 W/m 12,9 km/h (3 Bft) 96,30 %
12.10.2019 05:02 14,7 C 13,3 C 12,8 C 86 % 1009,1 hPa 0,0 l/m 0 min 0 min 0 W/m 12,9 km/h (3 Bft) 94,74 %
12.10.2019 05:04 14,6 C 13,3 C 12,8 C 86 % 1009,1 hPa 0,0 l/m 0 min 0 min 0 W/m 6,4 km/h (2 Bft) 97,87 %
12.10.2019 05:06 14,6 C 13,3 C 12,8 C 86 % 1009,1 hPa 0,0 l/m 0 min 0 min 0 W/m 6,4 km/h (2 Bft) 97,87 %
12.10.2019 05:08 14,6 C 13,3 C 12,8 C 86 % 1009,1 hPa 0,0 l/m 0 min 0 min 0 W/m 12,9 km/h (3 Bft) 97,92 %
12.10.2019 05:10 14,5 C 13,3 C 12,8 C 86 % 1009,1 hPa 0,0 l/m 0 min 0 min 0 W/m 3,2 km/h (1 Bft) 97,87 %
12.10.2019 05:12 14,5 C 13,3 C 12,8 C 86 % 1009,1 hPa 0,0 l/m 0 min 0 min 0 W/m 6,4 km/h (2 Bft) 97,87 %
12.10.2019 05:14 14,4 C 12,8 C 12,8 C 86 % 1009,1 hPa 0,0 l/m 0 min 0 min 0 W/m 3,2 km/h (1 Bft) 98,15 %
12.10.2019 05:16 14,4 C 12,8 C 12,8 C 86 % 1009,1 hPa 0,0 l/m 0 min 0 min 0 W/m 3,2 km/h (1 Bft) 95,74 %
12.10.2019 05:18 14,4 C 12,8 C 12,8 C 86 % 1009,1 hPa 0,0 l/m 0 min 0 min 0 W/m 6,4 km/h (2 Bft) 97,37 %
12.10.2019 05:20 14,4 C 12,8 C 12,2 C 86 % 1009,1 hPa 0,0 l/m 0 min 0 min 0 W/m 3,2 km/h (1 Bft) 95,83 %
12.10.2019 05:22 14,3 C 12,8 C 12,2 C 86 % 1009,1 hPa 0,0 l/m 0 min 0 min 0 W/m 6,4 km/h (2 Bft) 97,87 %
12.10.2019 05:24 14,3 C 12,8 C 12,2 C 86 % 1009,1 hPa 0,0 l/m 0 min 0 min 0 W/m 3,2 km/h (1 Bft) 98,15 %
12.10.2019 05:26 14,3 C 12,8 C 12,2 C 86 % 1009,0 hPa 0,0 l/m 0 min 0 min 0 W/m 3,2 km/h (1 Bft) 97,37 %
12.10.2019 05:28 14,3 C 12,8 C 12,2 C 86 % 1009,0 hPa 0,0 l/m 0 min 0 min 0 W/m 6,4 km/h (2 Bft) 97,87 %
12.10.2019 05:30 14,3 C 12,8 C 12,2 C 86 % 1009,0 hPa 0,0 l/m 0 min 0 min 0 W/m 3,2 km/h (1 Bft) 100,00 %
12.10.2019 05:32 14,3 C 12,2 C 12,2 C 86 % 1009,1 hPa 0,0 l/m 0 min 0 min 0 W/m 6,4 km/h (2 Bft) 100,00 %
12.10.2019 05:34 14,3 C 12,2 C 12,2 C 86 % 1009,0 hPa 0,0 l/m 0 min 0 min 0 W/m 6,4 km/h (2 Bft) 97,87 %
12.10.2019 05:36 14,3 C 12,2 C 11,7 C 86 % 1009,1 hPa 0,0 l/m 0 min 0 min 0 W/m 6,4 km/h (2 Bft) 100,00 %
12.10.2019 05:38 14,2 C 12,2 C 11,7 C 87 % 1009,0 hPa 0,0 l/m 0 min 0 min 0 W/m 6,4 km/h (2 Bft) 100,00 %
12.10.2019 05:40 14,2 C 12,2 C 11,7 C 87 % 1009,1 hPa 0,0 l/m 0 min 0 min 0 W/m 6,4 km/h (2 Bft) 100,00 %
12.10.2019 05:42 14,1 C 11,7 C 11,7 C 87 % 1009,0 hPa 0,0 l/m 0 min 0 min 0 W/m 6,4 km/h (2 Bft) 100,00 %
12.10.2019 05:44 14,1 C 11,7 C 11,7 C 86 % 1009,0 hPa 0,0 l/m 0 min 0 min 0 W/m 6,4 km/h (2 Bft) 100,00 %
12.10.2019 05:46 14,1 C 11,7 C 11,7 C 87 % 1008,9 hPa 0,0 l/m 0 min 0 min 0 W/m 6,4 km/h (2 Bft) 100,00 %
12.10.2019 05:48 13,9 C 11,7 C 11,7 C 87 % 1009,0 hPa 0,0 l/m 0 min 0 min 0 W/m 6,4 km/h (2 Bft) 100,00 %
12.10.2019 05:50 13,9 C 11,7 C 11,1 C 87 % 1009,0 hPa 0,0 l/m 0 min 0 min 0 W/m 6,4 km/h (2 Bft) 100,00 %
12.10.2019 05:52 13,8 C 11,7 C 11,1 C 87 % 1009,0 hPa 0,0 l/m 0 min 0 min 0 W/m 3,2 km/h (1 Bft) 100,00 %
12.10.2019 05:54 13,8 C 11,1 C 11,1 C 87 % 1009,0 hPa 0,0 l/m 0 min 0 min 0 W/m 3,2 km/h (1 Bft) 97,37 %
12.10.2019 05:56 13,8 C 11,1 C 11,1 C 87 % 1009,0 hPa 0,0 l/m 0 min 0 min 0 W/m 6,4 km/h (2 Bft) 100,00 %
12.10.2019 05:58 13,7 C 11,1 C 11,1 C 87 % 1009,0 hPa 0,0 l/m 0 min 0 min 0 W/m 6,4 km/h (2 Bft) 100,00 %
12.10.2019 06:00 13,6 C 11,1 C 11,1 C 87 % 1009,0 hPa 0,0 l/m 0 min 0 min 0 W/m 6,4 km/h (2 Bft) 100,00 %
12.10.2019 06:02 13,6 C 11,7 C 11,1 C 87 % 1009,0 hPa 0,0 l/m 0 min 0 min 0 W/m 6,4 km/h (2 Bft) 97,96 %
12.10.2019 06:04 13,5 C 11,7 C 11,1 C 87 % 1009,0 hPa 0,0 l/m 0 min 0 min 0 W/m 12,9 km/h (3 Bft) 100,00 %
12.10.2019 06:08 13,4 C 12,2 C 11,7 C 88 % 1009,0 hPa 0,0 l/m 0 min 0 min 0 W/m 12,9 km/h (3 Bft) 98,02 %
12.10.2019 06:10 13,4 C 12,8 C 12,2 C 88 % 1009,0 hPa 0,0 l/m 0 min 0 min 0 W/m 16,1 km/h (3 Bft) 100,00 %
12.10.2019 06:12 13,3 C 12,8 C 12,2 C 89 % 1009,0 hPa 0,0 l/m 0 min 0 min 0 W/m 16,1 km/h (3 Bft) 100,00 %
12.10.2019 06:14 13,3 C 13,3 C 12,8 C 89 % 1009,0 hPa 0,0 l/m 0 min 0 min 0 W/m 16,1 km/h (3 Bft) 100,00 %
12.10.2019 06:16 13,4 C 13,3 C 12,8 C 90 % 1008,9 hPa 0,0 l/m 0 min 0 min 0 W/m 16,1 km/h (3 Bft) 100,00 %
12.10.2019 06:18 13,4 C 13,9 C 13,3 C 90 % 1009,0 hPa 0,0 l/m 0 min 0 min 0 W/m 29,0 km/h (5 Bft) 100,00 %
12.10.2019 06:20 13,5 C 13,9 C 13,3 C 90 % 1009,0 hPa 0,0 l/m 0 min 0 min 0 W/m 16,1 km/h (3 Bft) 95,83 %
12.10.2019 06:22 13,6 C 13,9 C 13,3 C 90 % 1009,1 hPa 0,0 l/m 0 min 0 min 0 W/m 19,3 km/h (3 Bft) 100,00 %
12.10.2019 06:24 13,6 C 13,9 C 13,3 C 90 % 1009,0 hPa 0,0 l/m 0 min 0 min 0 W/m 16,1 km/h (3 Bft) 100,00 %
12.10.2019 06:26 13,7 C 13,9 C 13,3 C 90 % 1009,0 hPa 0,0 l/m 0 min 0 min 0 W/m 16,1 km/h (3 Bft) 100,00 %
12.10.2019 06:28 13,8 C 14,4 C 13,9 C 90 % 1009,0 hPa 0,0 l/m 0 min 0 min 0 W/m 19,3 km/h (3 Bft) 97,37 %
12.10.2019 06:30 13,9 C 14,4 C 13,9 C 90 % 1009,0 hPa 0,0 l/m 0 min 0 min 0 W/m 16,1 km/h (3 Bft) 100,00 %
12.10.2019 06:32 13,9 C 14,4 C 13,9 C 90 % 1009,0 hPa 0,0 l/m 0 min 0 min 0 W/m 19,3 km/h (3 Bft) 100,00 %
12.10.2019 06:34 14,1 C 14,4 C 13,9 C 90 % 1009,0 hPa 0,0 l/m 0 min 0 min 0 W/m 19,3 km/h (3 Bft) 100,00 %
12.10.2019 06:36 14,1 C 14,4 C 13,9 C 90 % 1009,0 hPa 0,0 l/m 0 min 0 min 0 W/m 22,5 km/h (4 Bft) 100,00 %
12.10.2019 06:38 14,2 C 14,4 C 13,9 C 90 % 1008,9 hPa 0,0 l/m 0 min 0 min 0 W/m 16,1 km/h (3 Bft) 100,00 %
12.10.2019 06:40 14,3 C 14,4 C 13,9 C 89 % 1008,9 hPa 0,0 l/m 0 min 0 min 0 W/m 22,5 km/h (4 Bft) 100,00 %
12.10.2019 06:42 14,3 C 14,4 C 13,9 C 89 % 1009,0 hPa 0,0 l/m 0 min 0 min 0 W/m 19,3 km/h (3 Bft) 98,15 %
12.10.2019 06:44 14,3 C 14,4 C 13,9 C 89 % 1009,0 hPa 0,0 l/m 0 min 0 min 0 W/m 19,3 km/h (3 Bft) 97,37 %
12.10.2019 06:46 14,4 C 14,4 C 13,9 C 89 % 1009,0 hPa 0,0 l/m 0 min 0 min 0 W/m 22,5 km/h (4 Bft) 100,00 %
12.10.2019 06:48 14,5 C 14,4 C 13,9 C 88 % 1008,9 hPa 0,0 l/m 0 min 0 min 0 W/m 22,5 km/h (4 Bft) 100,00 %
12.10.2019 06:50 14,6 C 14,4 C 13,9 C 88 % 1009,0 hPa 0,0 l/m 0 min 0 min 0 W/m 19,3 km/h (3 Bft) 97,87 %
12.10.2019 06:52 14,6 C 14,4 C 13,9 C 88 % 1009,0 hPa 0,0 l/m 0 min 0 min 0 W/m 22,5 km/h (4 Bft) 96,30 %
12.10.2019 06:54 14,7 C 14,4 C 13,9 C 87 % 1009,0 hPa 0,0 l/m 0 min 0 min 0 W/m 16,1 km/h (3 Bft) 100,00 %
12.10.2019 06:56 14,7 C 14,4 C 13,9 C 87 % 1009,0 hPa 0,0 l/m 0 min 0 min 0 W/m 22,5 km/h (4 Bft) 100,00 %
12.10.2019 06:58 14,8 C 14,4 C 13,9 C 87 % 1009,1 hPa 0,0 l/m 0 min 0 min 0 W/m 19,3 km/h (3 Bft) 98,11 %
12.10.2019 07:00 14,8 C 13,9 C 13,3 C 87 % 1009,1 hPa 0,0 l/m 0 min 0 min 0 W/m 12,9 km/h (3 Bft) 97,37 %
12.10.2019 07:02 14,8 C 13,9 C 13,3 C 87 % 1009,1 hPa 0,0 l/m 0 min 0 min 0 W/m 19,3 km/h (3 Bft) 96,00 %
12.10.2019 07:04 14,8 C 13,9 C 13,9 C 87 % 1009,1 hPa 0,0 l/m 0 min 0 min 0 W/m 19,3 km/h (3 Bft) 97,83 %
12.10.2019 07:06 14,8 C 13,9 C 13,3 C 86 % 1009,0 hPa 0,0 l/m 0 min 0 min 0 W/m 12,9 km/h (3 Bft) 97,87 %
12.10.2019 07:08 14,8 C 13,9 C 13,3 C 86 % 1009,1 hPa 0,0 l/m 0 min 0 min 0 W/m 22,5 km/h (4 Bft) 97,87 %
12.10.2019 07:10 14,9 C 13,9 C 13,3 C 86 % 1009,1 hPa 0,0 l/m 0 min 0 min 0 W/m 12,9 km/h (3 Bft) 98,11 %
12.10.2019 07:12 14,9 C 13,9 C 13,3 C 86 % 1009,2 hPa 0,0 l/m 0 min 0 min 0 W/m 25,7 km/h (4 Bft) 97,37 %
12.10.2019 07:14 14,9 C 13,9 C 13,3 C 86 % 1009,1 hPa 0,0 l/m 0 min 0 min 0 W/m 22,5 km/h (4 Bft) 96,00 %
12.10.2019 07:16 14,9 C 13,9 C 13,3 C 86 % 1009,1 hPa 0,0 l/m 0 min 0 min 0 W/m 12,9 km/h (3 Bft) 95,65 %
12.10.2019 07:18 14,9 C 13,9 C 13,3 C 86 % 1009,2 hPa 0,0 l/m 0 min 0 min 0 W/m 19,3 km/h (3 Bft) 94,44 %
12.10.2019 07:20 14,9 C 13,9 C 13,3 C 86 % 1009,2 hPa 0,0 l/m 0 min 0 min 0 W/m 12,9 km/h (3 Bft) 97,37 %
12.10.2019 07:22 14,9 C 13,9 C 13,3 C 86 % 1009,3 hPa 0,0 l/m 0 min 0 min 0 W/m 19,3 km/h (3 Bft) 93,88 %
12.10.2019 07:24 14,9 C 13,9 C 13,3 C 86 % 1009,3 hPa 0,0 l/m 0 min 0 min 0 W/m 19,3 km/h (3 Bft) 93,62 %
12.10.2019 07:26 14,9 C 13,9 C 13,3 C 86 % 1009,3 hPa 0,0 l/m 0 min 0 min 0 W/m 12,9 km/h (3 Bft) 93,62 %
12.10.2019 07:28 14,9 C 13,9 C 13,3 C 86 % 1009,4 hPa 0,0 l/m 0 min 0 min 0 W/m 16,1 km/h (3 Bft) 94,34 %
12.10.2019 07:30 14,9 C 13,9 C 13,3 C 86 % 1009,4 hPa 0,0 l/m 0 min 0 min 0 W/m 19,3 km/h (3 Bft) 94,74 %
12.10.2019 07:32 14,9 C 13,9 C 13,3 C 86 % 1009,4 hPa 0,0 l/m 0 min 0 min 0 W/m 16,1 km/h (3 Bft) 95,92 %
12.10.2019 07:34 14,9 C 13,9 C 13,3 C 86 % 1009,5 hPa 0,0 l/m 0 min 0 min 0 W/m 19,3 km/h (3 Bft) 93,62 %
12.10.2019 07:36 14,8 C 13,9 C 13,3 C 86 % 1009,4 hPa 0,0 l/m 0 min 0 min 0 W/m 16,1 km/h (3 Bft) 92,45 %
12.10.2019 07:38 14,8 C 13,9 C 13,3 C 86 % 1009,4 hPa 0,0 l/m 0 min 0 min 0 W/m 19,3 km/h (3 Bft) 93,62 %
12.10.2019 07:40 14,9 C 13,9 C 13,3 C 86 % 1009,4 hPa 0,0 l/m 0 min 0 min 0 W/m 19,3 km/h (3 Bft) 93,62 %
12.10.2019 07:42 14,8 C 13,9 C 13,3 C 86 % 1009,4 hPa 0,0 l/m 0 min 0 min 0 W/m 16,1 km/h (3 Bft) 93,48 %
12.10.2019 07:44 14,8 C 13,9 C 13,9 C 86 % 1009,4 hPa 0,0 l/m 0 min 0 min 0 W/m 22,5 km/h (4 Bft) 92,31 %
12.10.2019 07:46 14,8 C 14,4 C 13,9 C 86 % 1009,4 hPa 0,0 l/m 0 min 0 min 0 W/m 22,5 km/h (4 Bft) 93,88 %
12.10.2019 07:48 14,9 C 14,4 C 13,9 C 86 % 1009,3 hPa 0,0 l/m 0 min 0 min 0 W/m 19,3 km/h (3 Bft) 93,62 %
12.10.2019 07:50 14,9 C 14,4 C 13,9 C 86 % 1009,3 hPa 0,0 l/m 0 min 0 min 0 W/m 19,3 km/h (3 Bft) 96,23 %
12.10.2019 07:52 14,9 C 14,4 C 13,9 C 86 % 1009,4 hPa 0,0 l/m 0 min 0 min 0 W/m 25,7 km/h (4 Bft) 94,74 %
12.10.2019 07:54 14,9 C 14,4 C 13,9 C 86 % 1009,3 hPa 0,0 l/m 0 min 0 min 1 W/m 22,5 km/h (4 Bft) 95,92 %
12.10.2019 07:56 14,9 C 13,9 C 13,9 C 86 % 1009,4 hPa 0,0 l/m 0 min 0 min 5 W/m 19,3 km/h (3 Bft) 93,62 %
12.10.2019 07:58 14,9 C 13,9 C 13,9 C 86 % 1009,4 hPa 0,0 l/m 0 min 0 min 5 W/m 22,5 km/h (4 Bft) 94,34 %
12.10.2019 08:00 14,9 C 13,9 C 13,9 C 86 % 1009,4 hPa 0,0 l/m 0 min 0 min 7 W/m 25,7 km/h (4 Bft) 94,74 %
12.10.2019 08:02 14,9 C 13,9 C 13,9 C 86 % 1009,5 hPa 0,0 l/m 0 min 0 min 7 W/m 29,0 km/h (5 Bft) 95,92 %
12.10.2019 08:04 14,9 C 13,9 C 13,3 C 86 % 1009,4 hPa 0,0 l/m 0 min 0 min 7 W/m 16,1 km/h (3 Bft) 95,74 %
12.10.2019 08:06 14,9 C 13,9 C 13,3 C 86 % 1009,4 hPa 0,0 l/m 0 min 0 min 10 W/m 19,3 km/h (3 Bft) 95,74 %
12.10.2019 08:08 14,9 C 13,9 C 13,3 C 86 % 1009,5 hPa 0,0 l/m 0 min 0 min 11 W/m 19,3 km/h (3 Bft) 95,74 %
12.10.2019 08:10 14,9 C 13,9 C 13,3 C 86 % 1009,5 hPa 0,0 l/m 0 min 0 min 11 W/m 19,3 km/h (3 Bft) 96,23 %
12.10.2019 08:12 14,9 C 13,9 C 13,3 C 86 % 1009,5 hPa 0,0 l/m 0 min 0 min 11 W/m 19,3 km/h (3 Bft) 100,00 %
12.10.2019 08:14 14,8 C 13,9 C 13,3 C 86 % 1009,5 hPa 0,0 l/m 0 min 0 min 11 W/m 19,3 km/h (3 Bft) 95,92 %
12.10.2019 08:16 14,8 C 13,9 C 13,3 C 86 % 1009,6 hPa 0,0 l/m 0 min 0 min 12 W/m 16,1 km/h (3 Bft) 100,00 %
12.10.2019 08:18 14,8 C 13,9 C 13,3 C 86 % 1009,5 hPa 0,0 l/m 0 min 0 min 12 W/m 16,1 km/h (3 Bft) 100,00 %
12.10.2019 08:20 14,8 C 13,9 C 13,3 C 86 % 1009,5 hPa 0,0 l/m 0 min 0 min 12 W/m 12,9 km/h (3 Bft) 100,00 %
12.10.2019 08:22 14,8 C 13,9 C 13,3 C 86 % 1009,6 hPa 0,0 l/m 0 min 0 min 12 W/m 25,7 km/h (4 Bft) 100,00 %
12.10.2019 08:24 14,8 C 13,9 C 13,3 C 86 % 1009,7 hPa 0,0 l/m 0 min 0 min 14 W/m 32,2 km/h (5 Bft) 100,00 %
12.10.2019 08:26 14,8 C 13,9 C 13,3 C 86 % 1009,6 hPa 0,0 l/m 0 min 0 min 14 W/m 19,3 km/h (3 Bft) 100,00 %
12.10.2019 08:28 14,7 C 13,9 C 13,3 C 86 % 1009,7 hPa 0,0 l/m 0 min 0 min 16 W/m 25,7 km/h (4 Bft) 97,83 %
12.10.2019 08:30 14,7 C 13,9 C 13,3 C 86 % 1009,6 hPa 0,0 l/m 0 min 0 min 16 W/m 19,3 km/h (3 Bft) 94,87 %
12.10.2019 08:32 14,7 C 13,9 C 13,3 C 87 % 1009,7 hPa 0,0 l/m 0 min 0 min 17 W/m 12,9 km/h (3 Bft) 97,96 %
12.10.2019 08:34 14,7 C 13,9 C 13,3 C 87 % 1009,8 hPa 0,0 l/m 0 min 0 min 18 W/m 16,1 km/h (3 Bft) 100,00 %
12.10.2019 08:36 14,7 C 13,9 C 13,3 C 87 % 1009,7 hPa 0,0 l/m 0 min 0 min 18 W/m 22,5 km/h (4 Bft) 100,00 %
12.10.2019 08:38 14,7 C 13,9 C 13,3 C 87 % 1009,8 hPa 0,0 l/m 0 min 0 min 19 W/m 22,5 km/h (4 Bft) 98,11 %
12.10.2019 08:40 14,7 C 13,9 C 13,3 C 87 % 1009,8 hPa 0,0 l/m 0 min 0 min 19 W/m 16,1 km/h (3 Bft) 100,00 %
12.10.2019 08:42 14,7 C 13,9 C 13,3 C 87 % 1009,8 hPa 0,0 l/m 0 min 0 min 20 W/m 22,5 km/h (4 Bft) 100,00 %
12.10.2019 08:44 14,6 C 13,9 C 13,3 C 87 % 1009,8 hPa 0,0 l/m 0 min 0 min 21 W/m 22,5 km/h (4 Bft) 100,00 %
12.10.2019 08:46 14,6 C 13,9 C 13,3 C 87 % 1009,8 hPa 0,0 l/m 0 min 0 min 21 W/m 16,1 km/h (3 Bft) 100,00 %
12.10.2019 08:48 14,6 C 13,9 C 13,3 C 87 % 1009,9 hPa 0,0 l/m 0 min 0 min 21 W/m 19,3 km/h (3 Bft) 100,00 %
12.10.2019 08:50 14,6 C 13,9 C 13,3 C 87 % 1009,8 hPa 0,0 l/m 0 min 0 min 23 W/m 19,3 km/h (3 Bft) 100,00 %
12.10.2019 08:52 14,6 C 13,9 C 13,3 C 87 % 1009,9 hPa 0,0 l/m 0 min 0 min 23 W/m 16,1 km/h (3 Bft) 100,00 %
12.10.2019 08:54 14,6 C 13,9 C 13,3 C 87 % 1009,8 hPa 0,0 l/m 0 min 0 min 23 W/m 16,1 km/h (3 Bft) 97,87 %
12.10.2019 08:56 14,6 C 13,9 C 13,3 C 87 % 1009,9 hPa 0,0 l/m 0 min 0 min 24 W/m 16,1 km/h (3 Bft) 100,00 %
12.10.2019 08:58 14,6 C 13,9 C 13,3 C 87 % 1009,9 hPa 0,0 l/m 0 min 0 min 25 W/m 16,1 km/h (3 Bft) 100,00 %
12.10.2019 09:00 14,6 C 13,9 C 13,3 C 87 % 1009,9 hPa 0,0 l/m 0 min 0 min 25 W/m 16,1 km/h (3 Bft) 100,00 %
12.10.2019 09:02 14,6 C 13,9 C 13,3 C 87 % 1009,9 hPa 0,0 l/m 0 min 0 min 26 W/m 32,2 km/h (5 Bft) 100,00 %
12.10.2019 09:04 14,6 C 13,9 C 13,3 C 87 % 1010,0 hPa 0,0 l/m 0 min 0 min 26 W/m 22,5 km/h (4 Bft) 100,00 %
12.10.2019 09:06 14,6 C 13,9 C 13,3 C 87 % 1010,0 hPa 0,0 l/m 0 min 0 min 26 W/m 19,3 km/h (3 Bft) 97,87 %
12.10.2019 09:08 14,7 C 13,9 C 13,3 C 87 % 1010,0 hPa 0,0 l/m 0 min 0 min 27 W/m 19,3 km/h (3 Bft) 100,00 %
12.10.2019 09:10 14,7 C 14,4 C 13,3 C 87 % 1010,0 hPa 0,0 l/m 0 min 0 min 28 W/m 19,3 km/h (3 Bft) 100,00 %
12.10.2019 09:12 14,7 C 14,4 C 13,3 C 87 % 1010,0 hPa 0,0 l/m 0 min 0 min 29 W/m 22,5 km/h (4 Bft) 100,00 %
12.10.2019 09:14 14,7 C 14,4 C 13,3 C 88 % 1010,0 hPa 0,0 l/m 0 min 0 min 30 W/m 19,3 km/h (3 Bft) 97,37 %
12.10.2019 09:16 14,7 C 14,4 C 13,9 C 87 % 1010,1 hPa 0,0 l/m 0 min 0 min 31 W/m 22,5 km/h (4 Bft) 100,00 %
12.10.2019 09:18 14,7 C 14,4 C 13,9 C 87 % 1010,1 hPa 0,0 l/m 0 min 0 min 32 W/m 12,9 km/h (3 Bft) 100,00 %
12.10.2019 09:20 14,7 C 14,4 C 13,9 C 87 % 1010,0 hPa 0,0 l/m 0 min 0 min 33 W/m 22,5 km/h (4 Bft) 100,00 %
12.10.2019 09:22 14,8 C 14,4 C 13,9 C 87 % 1010,1 hPa 0,0 l/m 0 min 0 min 34 W/m 22,5 km/h (4 Bft) 100,00 %
12.10.2019 09:24 14,8 C 14,4 C 13,9 C 87 % 1010,2 hPa 0,0 l/m 0 min 0 min 35 W/m 25,7 km/h (4 Bft) 100,00 %
12.10.2019 09:26 14,8 C 14,4 C 13,9 C 87 % 1010,1 hPa 0,0 l/m 0 min 0 min 37 W/m 22,5 km/h (4 Bft) 100,00 %
12.10.2019 09:28 14,8 C 14,4 C 13,9 C 87 % 1010,1 hPa 0,0 l/m 0 min 0 min 39 W/m 22,5 km/h (4 Bft) 100,00 %
12.10.2019 09:30 14,8 C 14,4 C 13,9 C 87 % 1010,1 hPa 0,0 l/m 0 min 0 min 39 W/m 19,3 km/h (3 Bft) 100,00 %
12.10.2019 09:32 14,9 C 14,4 C 13,9 C 87 % 1010,1 hPa 0,0 l/m 0 min 0 min 39 W/m 12,9 km/h (3 Bft) 100,00 %
12.10.2019 09:34 14,9 C 14,4 C 13,9 C 87 % 1010,1 hPa 0,0 l/m 0 min 0 min 40 W/m 22,5 km/h (4 Bft) 98,00 %
12.10.2019 09:36 14,9 C 14,4 C 13,9 C 87 % 1010,1 hPa 0,0 l/m 0 min 0 min 42 W/m 19,3 km/h (3 Bft) 100,00 %
12.10.2019 09:38 15,0 C 14,4 C 13,9 C 87 % 1010,2 hPa 0,0 l/m 0 min 0 min 43 W/m 25,7 km/h (4 Bft) 95,74 %
12.10.2019 09:40 15,0 C 14,4 C 13,9 C 87 % 1010,2 hPa 0,0 l/m 0 min 0 min 47 W/m 25,7 km/h (4 Bft) 100,00 %
12.10.2019 09:42 15,1 C 15,0 C 13,9 C 87 % 1010,2 hPa 0,0 l/m 0 min 0 min 53 W/m 25,7 km/h (4 Bft) 95,74 %
12.10.2019 09:44 15,1 C 15,0 C 13,9 C 87 % 1010,3 hPa 0,0 l/m 0 min 0 min 73 W/m 25,7 km/h (4 Bft) 100,00 %
12.10.2019 09:46 15,1 C 15,0 C 14,4 C 87 % 1010,2 hPa 0,0 l/m 0 min 0 min 97 W/m 29,0 km/h (5 Bft) 98,00 %
12.10.2019 09:48 15,2 C 15,6 C 14,4 C 87 % 1010,3 hPa 0,0 l/m 0 min 0 min 111 W/m 25,7 km/h (4 Bft) 95,65 %
12.10.2019 09:50 15,2 C 15,6 C 14,4 C 87 % 1010,3 hPa 0,0 l/m 0 min 0 min 101 W/m 22,5 km/h (4 Bft) 100,00 %
12.10.2019 09:52 15,3 C 15,6 C 14,4 C 86 % 1010,4 hPa 0,0 l/m 0 min 0 min 96 W/m 25,7 km/h (4 Bft) 100,00 %
12.10.2019 09:54 15,3 C 16,1 C 14,4 C 86 % 1010,4 hPa 0,0 l/m 2 min 0 min 195 W/m 19,3 km/h (3 Bft) 100,00 %
12.10.2019 09:56 15,4 C 17,2 C 14,4 C 86 % 1010,5 hPa 0,0 l/m 2 min 0 min 283 W/m 48,3 km/h (6 Bft) 95,74 %
12.10.2019 09:58 15,4 C 17,8 C 14,4 C 86 % 1010,4 hPa 0,0 l/m 2 min 0 min 293 W/m 25,7 km/h (4 Bft) 97,37 %
12.10.2019 10:00 15,6 C 18,3 C 14,4 C 86 % 1010,5 hPa 0,0 l/m 2 min 0 min 298 W/m 25,7 km/h (4 Bft) 100,00 %
12.10.2019 10:02 15,6 C 18,3 C 14,4 C 86 % 1010,5 hPa 0,0 l/m 2 min 0 min 303 W/m 25,7 km/h (4 Bft) 95,74 %
12.10.2019 10:04 15,7 C 18,3 C 14,4 C 85 % 1010,5 hPa 0,0 l/m 2 min 0 min 309 W/m 29,0 km/h (5 Bft) 95,74 %
12.10.2019 10:06 15,8 C 18,3 C 15,0 C 85 % 1010,5 hPa 0,0 l/m 2 min 0 min 312 W/m 35,4 km/h (5 Bft) 95,74 %
12.10.2019 10:08 15,9 C 18,9 C 16,1 C 85 % 1010,5 hPa 0,0 l/m 2 min 0 min 325 W/m 32,2 km/h (5 Bft) 93,62 %
12.10.2019 10:10 15,9 C 18,9 C 17,2 C 84 % 1010,6 hPa 0,0 l/m 2 min 0 min 344 W/m 12,9 km/h (3 Bft) 96,23 %
12.10.2019 10:12 16,1 C 19,4 C 18,3 C 85 % 1010,5 hPa 0,0 l/m 2 min 0 min 327 W/m 22,5 km/h (4 Bft) 94,74 %
12.10.2019 10:14 16,1 C 19,4 C 18,9 C 85 % 1010,6 hPa 0,0 l/m 2 min 0 min 331 W/m 32,2 km/h (5 Bft) 93,88 %
12.10.2019 10:16 16,2 C 20,0 C 18,3 C 84 % 1010,5 hPa 0,0 l/m 2 min 0 min 341 W/m 38,6 km/h (5 Bft) 95,74 %
12.10.2019 10:18 16,3 C 20,0 C 17,8 C 84 % 1010,5 hPa 0,0 l/m 2 min 0 min 346 W/m 25,7 km/h (4 Bft) 96,23 %
12.10.2019 10:20 16,4 C 20,0 C 17,2 C 84 % 1010,5 hPa 0,0 l/m 2 min 0 min 348 W/m 22,5 km/h (4 Bft) 92,11 %
12.10.2019 10:22 16,5 C 20,0 C 16,7 C 84 % 1010,6 hPa 0,0 l/m 2 min 0 min 351 W/m 25,7 km/h (4 Bft) 95,92 %
12.10.2019 10:24 16,6 C 20,0 C 16,1 C 83 % 1010,6 hPa 0,0 l/m 2 min 0 min 355 W/m 16,1 km/h (3 Bft) 95,74 %
12.10.2019 10:26 16,7 C 20,6 C 16,1 C 83 % 1010,7 hPa 0,0 l/m 2 min 0 min 363 W/m 16,1 km/h (3 Bft) 96,23 %
12.10.2019 10:28 16,7 C 20,6 C 16,1 C 83 % 1010,6 hPa 0,0 l/m 2 min 0 min 365 W/m 29,0 km/h (5 Bft) 94,74 %
12.10.2019 10:30 16,8 C 20,6 C 16,1 C 83 % 1010,7 hPa 0,0 l/m 2 min 0 min 371 W/m 19,3 km/h (3 Bft) 94,00 %
12.10.2019 10:32 16,9 C 20,6 C 16,1 C 83 % 1010,7 hPa 0,0 l/m 2 min 0 min 373 W/m 16,1 km/h (3 Bft) 89,36 %
12.10.2019 10:34 16,9 C 20,6 C 16,1 C 82 % 1010,9 hPa 0,0 l/m 2 min 0 min 383 W/m 25,7 km/h (4 Bft) 92,45 %
12.10.2019 10:38 17,1 C 20,0 C 16,1 C 82 % 1010,8 hPa 0,0 l/m 4 min 0 min 393 W/m 29,0 km/h (5 Bft) 94,68 %
12.10.2019 10:40 17,2 C 20,0 C 16,1 C 81 % 1010,8 hPa 0,0 l/m 2 min 0 min 404 W/m 35,4 km/h (5 Bft) 93,62 %
12.10.2019 10:42 17,2 C 20,0 C 16,1 C 81 % 1010,9 hPa 0,0 l/m 2 min 0 min 406 W/m 22,5 km/h (4 Bft) 94,74 %
12.10.2019 10:44 17,3 C 20,0 C 16,1 C 81 % 1010,8 hPa 0,0 l/m 2 min 0 min 405 W/m 22,5 km/h (4 Bft) 95,74 %
12.10.2019 10:46 17,3 C 20,0 C 16,1 C 81 % 1010,8 hPa 0,0 l/m 2 min 0 min 410 W/m 38,6 km/h (5 Bft) 95,74 %
12.10.2019 10:48 17,3 C 20,0 C 16,1 C 80 % 1010,8 hPa 0,0 l/m 2 min 0 min 409 W/m 29,0 km/h (5 Bft) 95,74 %
12.10.2019 10:50 17,4 C 20,0 C 16,1 C 81 % 1010,8 hPa 0,0 l/m 2 min 0 min 423 W/m 25,7 km/h (4 Bft) 93,62 %
12.10.2019 10:52 17,4 C 19,4 C 16,1 C 80 % 1010,9 hPa 0,0 l/m 2 min 0 min 422 W/m 25,7 km/h (4 Bft) 94,34 %
12.10.2019 10:54 17,4 C 20,0 C 16,1 C 80 % 1010,8 hPa 0,0 l/m 2 min 0 min 439 W/m 22,5 km/h (4 Bft) 97,37 %
12.10.2019 10:56 17,4 C 20,0 C 16,1 C 80 % 1010,8 hPa 0,0 l/m 2 min 0 min 446 W/m 16,1 km/h (3 Bft) 91,67 %
12.10.2019 10:58 17,4 C 20,6 C 16,7 C 81 % 1010,8 hPa 0,0 l/m 2 min 0 min 442 W/m 16,1 km/h (3 Bft) 95,83 %
12.10.2019 11:00 17,5 C 21,1 C 16,7 C 81 % 1010,8 hPa 0,0 l/m 2 min 0 min 438 W/m 16,1 km/h (3 Bft) 95,74 %
12.10.2019 11:02 17,6 C 20,6 C 16,7 C 80 % 1010,9 hPa 0,0 l/m 2 min 0 min 450 W/m 35,4 km/h (5 Bft) 95,74 %
12.10.2019 11:04 17,4 C 20,0 C 16,1 C 80 % 1010,9 hPa 0,0 l/m 2 min 0 min 467 W/m 29,0 km/h (5 Bft) 94,44 %
12.10.2019 11:06 17,4 C 21,1 C 16,7 C 80 % 1010,9 hPa 0,0 l/m 2 min 0 min 448 W/m 38,6 km/h (5 Bft) 93,62 %
12.10.2019 11:08 17,5 C 21,1 C 16,7 C 81 % 1010,8 hPa 0,0 l/m 2 min 0 min 463 W/m 12,9 km/h (3 Bft) 97,37 %
12.10.2019 11:10 17,6 C 22,2 C 16,7 C 81 % 1010,8 hPa 0,0 l/m 2 min 0 min 456 W/m 12,9 km/h (3 Bft) 95,83 %
12.10.2019 11:12 17,6 C 21,7 C 16,7 C 81 % 1010,8 hPa 0,0 l/m 2 min 0 min 473 W/m 22,5 km/h (4 Bft) 91,49 %
12.10.2019 11:14 17,7 C 21,7 C 16,7 C 81 % 1010,9 hPa 0,0 l/m 2 min 0 min 476 W/m 19,3 km/h (3 Bft) 95,74 %
12.10.2019 11:16 17,7 C 21,1 C 16,7 C 80 % 1011,0 hPa 0,0 l/m 2 min 0 min 468 W/m 35,4 km/h (5 Bft) 94,44 %
12.10.2019 11:18 17,7 C 20,6 C 16,7 C 80 % 1010,9 hPa 0,0 l/m 2 min 0 min 468 W/m 25,7 km/h (4 Bft) 97,37 %
12.10.2019 11:20 17,8 C 20,0 C 16,7 C 79 % 1010,9 hPa 0,0 l/m 2 min 0 min 466 W/m 38,6 km/h (5 Bft) 97,87 %
12.10.2019 11:22 17,8 C 20,0 C 16,7 C 79 % 1011,0 hPa 0,0 l/m 2 min 0 min 454 W/m 29,0 km/h (5 Bft) 97,87 %
12.10.2019 11:24 17,8 C 20,6 C 16,7 C 79 % 1010,9 hPa 0,0 l/m 2 min 0 min 492 W/m 22,5 km/h (4 Bft) 97,87 %
12.10.2019 11:26 17,8 C 21,7 C 16,7 C 79 % 1010,9 hPa 0,0 l/m 2 min 0 min 489 W/m 25,7 km/h (4 Bft) 100,00 %
12.10.2019 11:28 17,9 C 22,2 C 17,2 C 80 % 1010,9 hPa 0,0 l/m 2 min 0 min 491 W/m 22,5 km/h (4 Bft) 100,00 %
12.10.2019 11:30 17,9 C 22,8 C 17,2 C 79 % 1010,9 hPa 0,0 l/m 2 min 0 min 496 W/m 19,3 km/h (3 Bft) 100,00 %
12.10.2019 11:32 18,1 C 22,2 C 17,2 C 79 % 1011,0 hPa 0,0 l/m 2 min 0 min 508 W/m 29,0 km/h (5 Bft) 100,00 %
12.10.2019 11:34 18,1 C 22,8 C 17,2 C 79 % 1011,0 hPa 0,0 l/m 2 min 0 min 534 W/m 25,7 km/h (4 Bft) 100,00 %
12.10.2019 11:36 18,2 C 22,2 C 17,2 C 79 % 1011,0 hPa 0,0 l/m 2 min 0 min 466 W/m 19,3 km/h (3 Bft) 100,00 %
12.10.2019 11:38 18,3 C 21,7 C 17,2 C 78 % 1011,1 hPa 0,0 l/m 2 min 0 min 498 W/m 29,0 km/h (5 Bft) 100,00 %
12.10.2019 11:40 18,3 C 22,2 C 17,2 C 78 % 1011,0 hPa 0,0 l/m 2 min 0 min 508 W/m 22,5 km/h (4 Bft) 100,00 %
12.10.2019 11:42 18,4 C 22,2 C 17,2 C 78 % 1011,0 hPa 0,0 l/m 2 min 0 min 515 W/m 29,0 km/h (5 Bft) 100,00 %
12.10.2019 11:44 18,4 C 21,7 C 17,2 C 77 % 1011,2 hPa 0,0 l/m 2 min 0 min 486 W/m 38,6 km/h (5 Bft) 100,00 %
12.10.2019 11:46 18,5 C 21,7 C 17,2 C 77 % 1011,0 hPa 0,0 l/m 2 min 0 min 503 W/m 35,4 km/h (5 Bft) 100,00 %
12.10.2019 11:48 18,6 C 22,2 C 17,2 C 77 % 1011,0 hPa 0,0 l/m 2 min 0 min 537 W/m 25,7 km/h (4 Bft) 100,00 %
12.10.2019 11:50 18,6 C 22,8 C 17,2 C 77 % 1011,0 hPa 0,0 l/m 2 min 0 min 544 W/m 32,2 km/h (5 Bft) 97,92 %
12.10.2019 11:52 18,7 C 21,7 C 17,2 C 76 % 1011,0 hPa 0,0 l/m 2 min 0 min 580 W/m 32,2 km/h (5 Bft) 97,87 %
12.10.2019 11:54 18,7 C 22,2 C 17,2 C 76 % 1011,1 hPa 0,0 l/m 2 min 0 min 577 W/m 29,0 km/h (5 Bft) 100,00 %
12.10.2019 11:56 18,8 C 22,8 C 17,2 C 76 % 1011,1 hPa 0,0 l/m 2 min 0 min 570 W/m 29,0 km/h (5 Bft) 100,00 %
12.10.2019 11:58 18,8 C 22,8 C 17,8 C 76 % 1011,1 hPa 0,0 l/m 2 min 0 min 570 W/m 22,5 km/h (4 Bft) 96,30 %
12.10.2019 12:00 18,9 C 22,8 C 17,8 C 76 % 1011,1 hPa 0,0 l/m 2 min 0 min 602 W/m 22,5 km/h (4 Bft) 100,00 %
12.10.2019 12:02 19,0 C 22,2 C 17,8 C 76 % 1011,1 hPa 0,0 l/m 2 min 0 min 583 W/m 29,0 km/h (5 Bft) 97,87 %
12.10.2019 12:04 19,1 C 22,8 C 17,8 C 76 % 1011,1 hPa 0,0 l/m 2 min 0 min 586 W/m 29,0 km/h (5 Bft) 100,00 %
12.10.2019 12:08 19,2 C 22,8 C 17,8 C 76 % 1011,0 hPa 0,0 l/m 4 min 0 min 572 W/m 32,2 km/h (5 Bft) 100,00 %
12.10.2019 12:10 19,2 C 22,8 C 17,8 C 76 % 1011,0 hPa 0,0 l/m 2 min 0 min 588 W/m 38,6 km/h (5 Bft) 100,00 %
12.10.2019 12:12 19,2 C 22,2 C 17,8 C 75 % 1011,3 hPa 0,0 l/m 2 min 0 min 575 W/m 25,7 km/h (4 Bft) 100,00 %
12.10.2019 12:14 19,3 C 23,3 C 17,8 C 75 % 1011,0 hPa 0,0 l/m 2 min 0 min 585 W/m 16,1 km/h (3 Bft) 97,96 %
12.10.2019 12:16 19,3 C 22,2 C 17,8 C 75 % 1011,1 hPa 0,0 l/m 2 min 0 min 531 W/m 29,0 km/h (5 Bft) 95,74 %
12.10.2019 12:18 19,3 C 22,8 C 17,8 C 75 % 1011,0 hPa 0,0 l/m 2 min 0 min 528 W/m 16,1 km/h (3 Bft) 100,00 %
12.10.2019 12:20 19,3 C 22,2 C 17,8 C 75 % 1011,0 hPa 0,0 l/m 2 min 0 min 466 W/m 22,5 km/h (4 Bft) 98,15 %
12.10.2019 12:22 19,3 C 22,2 C 17,8 C 74 % 1011,2 hPa 0,0 l/m 2 min 0 min 505 W/m 25,7 km/h (4 Bft) 97,83 %
12.10.2019 12:24 19,3 C 21,7 C 17,2 C 74 % 1011,0 hPa 0,0 l/m 2 min 0 min 570 W/m 41,8 km/h (6 Bft) 97,37 %
12.10.2019 12:26 19,2 C 22,2 C 17,8 C 74 % 1011,1 hPa 0,0 l/m 2 min 0 min 568 W/m 32,2 km/h (5 Bft) 97,96 %
12.10.2019 12:28 19,3 C 22,8 C 17,8 C 74 % 1011,0 hPa 0,0 l/m 2 min 0 min 540 W/m 19,3 km/h (3 Bft) 97,87 %
12.10.2019 12:30 19,3 C 22,8 C 17,8 C 74 % 1011,1 hPa 0,0 l/m 2 min 0 min 543 W/m 25,7 km/h (4 Bft) 96,30 %
12.10.2019 12:32 19,3 C 22,2 C 17,8 C 74 % 1011,1 hPa 0,0 l/m 2 min 0 min 492 W/m 19,3 km/h (3 Bft) 97,87 %
12.10.2019 12:34 19,3 C 22,2 C 17,8 C 74 % 1011,1 hPa 0,0 l/m 2 min 0 min 475 W/m 29,0 km/h (5 Bft) 97,37 %
12.10.2019 12:36 19,3 C 21,7 C 17,8 C 74 % 1011,1 hPa 0,0 l/m 2 min 0 min 470 W/m 38,6 km/h (5 Bft) 97,92 %
12.10.2019 12:38 19,3 C 21,7 C 17,8 C 73 % 1011,1 hPa 0,0 l/m 2 min 0 min 501 W/m 29,0 km/h (5 Bft) 95,74 %
12.10.2019 12:40 19,3 C 22,2 C 17,8 C 74 % 1011,0 hPa 0,0 l/m 2 min 0 min 510 W/m 22,5 km/h (4 Bft) 97,87 %
12.10.2019 12:42 19,3 C 22,8 C 17,8 C 74 % 1011,1 hPa 0,0 l/m 2 min 0 min 490 W/m 22,5 km/h (4 Bft) 98,15 %
12.10.2019 12:44 19,3 C 22,2 C 17,8 C 74 % 1011,1 hPa 0,0 l/m 2 min 0 min 389 W/m 35,4 km/h (5 Bft) 97,37 %
12.10.2019 12:46 19,3 C 21,7 C 17,8 C 73 % 1011,2 hPa 0,0 l/m 2 min 0 min 413 W/m 29,0 km/h (5 Bft) 97,92 %
12.10.2019 12:48 19,3 C 21,7 C 17,8 C 73 % 1011,1 hPa 0,0 l/m 2 min 0 min 432 W/m 32,2 km/h (5 Bft) 95,74 %
12.10.2019 12:50 19,4 C 22,2 C 17,8 C 74 % 1011,1 hPa 0,0 l/m 2 min 0 min 513 W/m 22,5 km/h (4 Bft) 96,30 %
12.10.2019 12:52 19,4 C 22,2 C 17,8 C 74 % 1011,1 hPa 0,0 l/m 2 min 0 min 499 W/m 16,1 km/h (3 Bft) 97,87 %
12.10.2019 12:54 19,4 C 21,7 C 17,8 C 74 % 1011,2 hPa 0,0 l/m 2 min 0 min 432 W/m 25,7 km/h (4 Bft) 97,87 %
12.10.2019 12:56 19,4 C 22,2 C 17,8 C 73 % 1011,2 hPa 0,0 l/m 2 min 0 min 485 W/m 32,2 km/h (5 Bft) 100,00 %
12.10.2019 12:58 19,4 C 22,2 C 17,8 C 73 % 1011,2 hPa 0,0 l/m 2 min 0 min 547 W/m 32,2 km/h (5 Bft) 97,44 %
12.10.2019 13:00 19,4 C 22,8 C 18,3 C 73 % 1011,1 hPa 0,0 l/m 2 min 0 min 649 W/m 41,8 km/h (6 Bft) 100,00 %
12.10.2019 13:02 19,5 C 23,9 C 18,3 C 73 % 1011,0 hPa 0,0 l/m 2 min 0 min 635 W/m 19,3 km/h (3 Bft) 97,87 %
12.10.2019 13:04 19,6 C 23,3 C 18,3 C 73 % 1011,3 hPa 0,0 l/m 2 min 0 min 613 W/m 25,7 km/h (4 Bft) 98,15 %
12.10.2019 13:06 19,6 C 22,2 C 18,3 C 72 % 1011,1 hPa 0,0 l/m 2 min 0 min 601 W/m 41,8 km/h (6 Bft) 94,74 %
12.10.2019 13:08 19,6 C 22,2 C 18,3 C 72 % 1011,1 hPa 0,0 l/m 2 min 0 min 591 W/m 32,2 km/h (5 Bft) 97,92 %
12.10.2019 13:10 19,6 C 21,7 C 18,3 C 72 % 1011,2 hPa 0,0 l/m 2 min 0 min 530 W/m 48,3 km/h (6 Bft) 97,87 %
12.10.2019 13:12 19,7 C 22,2 C 18,3 C 72 % 1011,1 hPa 0,0 l/m 2 min 0 min 487 W/m 25,7 km/h (4 Bft) 95,74 %
12.10.2019 13:14 19,7 C 22,8 C 18,3 C 72 % 1011,2 hPa 0,0 l/m 2 min 0 min 439 W/m 29,0 km/h (5 Bft) 98,15 %
12.10.2019 13:16 19,7 C 21,1 C 18,3 C 73 % 1011,2 hPa 0,0 l/m 2 min 0 min 370 W/m 29,0 km/h (5 Bft) 97,87 %
12.10.2019 13:18 19,7 C 22,8 C 18,9 C 72 % 1011,1 hPa 0,0 l/m 2 min 0 min 367 W/m 19,3 km/h (3 Bft) 97,37 %
12.10.2019 13:20 19,7 C 23,3 C 20,0 C 73 % 1011,2 hPa 0,0 l/m 2 min 0 min 635 W/m 29,0 km/h (5 Bft) 97,87 %
12.10.2019 13:22 19,7 C 22,8 C 21,1 C 74 % 1011,2 hPa 0,0 l/m 2 min 0 min 654 W/m 29,0 km/h (5 Bft) 97,92 %
12.10.2019 13:24 19,8 C 21,7 C 20,6 C 73 % 1011,3 hPa 0,0 l/m 2 min 0 min 496 W/m 16,1 km/h (3 Bft) 97,87 %
12.10.2019 13:26 19,7 C 20,6 C 19,4 C 73 % 1011,4 hPa 0,0 l/m 2 min 0 min 264 W/m 29,0 km/h (5 Bft) 97,87 %
12.10.2019 13:28 19,7 C 20,6 C 19,4 C 72 % 1011,3 hPa 0,0 l/m 0 min 0 min 240 W/m 19,3 km/h (3 Bft) 94,44 %
12.10.2019 13:30 19,6 C 19,4 C 18,3 C 72 % 1011,4 hPa 0,0 l/m 0 min 0 min 172 W/m 16,1 km/h (3 Bft) 100,00 %
12.10.2019 13:32 19,6 C 18,9 C 17,8 C 73 % 1011,3 hPa 0,0 l/m 0 min 0 min 147 W/m 16,1 km/h (3 Bft) 97,87 %
12.10.2019 13:34 19,5 C 18,9 C 17,8 C 73 % 1011,4 hPa 0,0 l/m 0 min 0 min 157 W/m 29,0 km/h (5 Bft) 97,83 %
12.10.2019 13:36 19,4 C 18,9 C 17,8 C 73 % 1011,4 hPa 0,0 l/m 0 min 0 min 235 W/m 25,7 km/h (4 Bft) 95,92 %
12.10.2019 13:38 19,3 C 18,9 C 17,8 C 73 % 1011,4 hPa 0,0 l/m 0 min 0 min 224 W/m 19,3 km/h (3 Bft) 97,87 %
12.10.2019 13:40 19,2 C 18,9 C 17,8 C 73 % 1011,5 hPa 0,0 l/m 0 min 0 min 194 W/m 29,0 km/h (5 Bft) 97,83 %
12.10.2019 13:42 19,1 C 18,9 C 17,8 C 73 % 1011,3 hPa 0,0 l/m 0 min 0 min 210 W/m 38,6 km/h (5 Bft) 98,18 %
12.10.2019 13:44 19,1 C 18,9 C 17,8 C 73 % 1011,3 hPa 0,0 l/m 0 min 0 min 200 W/m 19,3 km/h (3 Bft) 97,37 %
12.10.2019 13:46 19,0 C 18,9 C 17,8 C 74 % 1011,3 hPa 0,0 l/m 0 min 0 min 169 W/m 19,3 km/h (3 Bft) 97,92 %
12.10.2019 13:48 19,0 C 18,9 C 17,8 C 74 % 1011,3 hPa 0,0 l/m 0 min 0 min 182 W/m 16,1 km/h (3 Bft) 97,87 %
12.10.2019 13:50 18,9 C 18,9 C 17,8 C 75 % 1011,3 hPa 0,0 l/m 0 min 0 min 183 W/m 16,1 km/h (3 Bft) 97,87 %
12.10.2019 13:52 18,9 C 18,9 C 17,8 C 74 % 1011,3 hPa 0,0 l/m 0 min 0 min 160 W/m 32,2 km/h (5 Bft) 98,15 %
12.10.2019 13:54 18,8 C 18,3 C 17,8 C 74 % 1011,4 hPa 0,0 l/m 0 min 0 min 138 W/m 35,4 km/h (5 Bft) 100,00 %
12.10.2019 13:56 18,8 C 18,9 C 17,8 C 74 % 1011,2 hPa 0,0 l/m 0 min 0 min 189 W/m 25,7 km/h (4 Bft) 97,87 %
12.10.2019 13:58 18,8 C 18,9 C 17,8 C 75 % 1011,3 hPa 0,0 l/m 0 min 0 min 155 W/m 16,1 km/h (3 Bft) 97,37 %
12.10.2019 14:00 18,8 C 18,3 C 17,8 C 75 % 1011,4 hPa 0,0 l/m 0 min 0 min 129 W/m 29,0 km/h (5 Bft) 97,87 %
12.10.2019 14:02 18,7 C 18,9 C 17,2 C 74 % 1011,3 hPa 0,0 l/m 0 min 0 min 132 W/m 16,1 km/h (3 Bft) 100,00 %
12.10.2019 14:04 18,7 C 18,9 C 17,8 C 75 % 1011,3 hPa 0,0 l/m 0 min 0 min 156 W/m 22,5 km/h (4 Bft) 97,92 %
12.10.2019 14:06 18,7 C 19,4 C 17,8 C 75 % 1011,4 hPa 0,0 l/m 0 min 0 min 205 W/m 19,3 km/h (3 Bft) 97,87 %
12.10.2019 14:08 18,7 C 20,0 C 17,8 C 75 % 1011,4 hPa 0,0 l/m 0 min 0 min 229 W/m 16,1 km/h (3 Bft) 96,30 %
12.10.2019 14:10 18,8 C 20,6 C 18,3 C 75 % 1011,4 hPa 0,0 l/m 0 min 0 min 228 W/m 19,3 km/h (3 Bft) 100,00 %
12.10.2019 14:12 18,8 C 22,2 C 18,9 C 75 % 1011,4 hPa 0,0 l/m 2 min 0 min 256 W/m 22,5 km/h (4 Bft) 97,96 %
12.10.2019 14:14 18,9 C 22,2 C 18,9 C 75 % 1011,4 hPa 0,0 l/m 2 min 0 min 626 W/m 25,7 km/h (4 Bft) 97,87 %
12.10.2019 14:16 18,9 C 22,2 C 18,9 C 75 % 1011,5 hPa 0,0 l/m 2 min 0 min 626 W/m 45,1 km/h (6 Bft) 97,83 %
12.10.2019 14:18 19,1 C 22,2 C 18,9 C 74 % 1011,3 hPa 0,0 l/m 2 min 0 min 626 W/m 32,2 km/h (5 Bft) 100,00 %
12.10.2019 14:20 19,2 C 22,2 C 18,9 C 73 % 1011,2 hPa 0,0 l/m 2 min 0 min 626 W/m 19,3 km/h (3 Bft) 100,00 %
12.10.2019 14:22 19,2 C 22,8 C 18,9 C 74 % 1011,3 hPa 0,0 l/m 2 min 0 min 638 W/m 25,7 km/h (4 Bft) 100,00 %
12.10.2019 14:24 19,3 C 22,8 C 18,9 C 74 % 1011,3 hPa 0,0 l/m 2 min 0 min 620 W/m 38,6 km/h (5 Bft) 97,87 %
12.10.2019 14:26 19,4 C 22,2 C 18,9 C 74 % 1011,5 hPa 0,0 l/m 2 min 0 min 600 W/m 19,3 km/h (3 Bft) 97,96 %
12.10.2019 14:28 19,6 C 21,1 C 18,9 C 73 % 1011,3 hPa 0,0 l/m 2 min 0 min 312 W/m 19,3 km/h (3 Bft) 95,65 %
12.10.2019 14:30 19,6 C 20,6 C 18,9 C 73 % 1011,4 hPa 0,0 l/m 2 min 0 min 278 W/m 19,3 km/h (3 Bft) 97,87 %
12.10.2019 14:32 19,6 C 21,1 C 18,9 C 73 % 1011,4 hPa 0,0 l/m 0 min 0 min 218 W/m 19,3 km/h (3 Bft) 97,87 %
12.10.2019 14:34 19,6 C 21,1 C 18,9 C 73 % 1011,3 hPa 0,0 l/m 0 min 0 min 209 W/m 12,9 km/h (3 Bft) 97,87 %
12.10.2019 14:36 19,6 C 22,2 C 18,9 C 73 % 1011,4 hPa 0,0 l/m 2 min 0 min 260 W/m 19,3 km/h (3 Bft) 97,87 %
12.10.2019 14:38 19,7 C 23,3 C 19,4 C 73 % 1011,4 hPa 0,0 l/m 2 min 0 min 553 W/m 29,0 km/h (5 Bft) 96,30 %
12.10.2019 14:40 19,8 C 22,8 C 18,9 C 72 % 1011,4 hPa 0,0 l/m 2 min 0 min 599 W/m 29,0 km/h (5 Bft) 94,74 %
12.10.2019 14:42 19,8 C 21,7 C 18,9 C 72 % 1011,3 hPa 0,0 l/m 2 min 0 min 416 W/m 25,7 km/h (4 Bft) 97,87 %
12.10.2019 14:44 19,9 C 21,7 C 18,9 C 72 % 1011,3 hPa 0,0 l/m 0 min 0 min 202 W/m 19,3 km/h (3 Bft) 95,65 %
12.10.2019 14:46 19,9 C 21,7 C 18,9 C 72 % 1011,4 hPa 0,0 l/m 0 min 0 min 202 W/m 32,2 km/h (5 Bft) 95,74 %
12.10.2019 14:48 19,9 C 21,7 C 18,9 C 72 % 1011,3 hPa 0,0 l/m 2 min 0 min 469 W/m 35,4 km/h (5 Bft) 95,92 %
12.10.2019 14:50 19,9 C 20,6 C 18,9 C 71 % 1011,3 hPa 0,0 l/m 2 min 0 min 326 W/m 32,2 km/h (5 Bft) 95,74 %
12.10.2019 14:52 19,9 C 20,6 C 18,9 C 72 % 1011,3 hPa 0,0 l/m 2 min 0 min 329 W/m 19,3 km/h (3 Bft) 93,48 %
12.10.2019 14:54 19,9 C 21,7 C 19,4 C 72 % 1011,3 hPa 0,0 l/m 2 min 0 min 383 W/m 32,2 km/h (5 Bft) 95,74 %
12.10.2019 14:56 19,9 C 22,8 C 19,4 C 72 % 1011,2 hPa 0,0 l/m 2 min 0 min 643 W/m 29,0 km/h (5 Bft) 95,74 %
12.10.2019 14:58 20,0 C 22,2 C 19,4 C 72 % 1011,2 hPa 0,0 l/m 2 min 0 min 638 W/m 32,2 km/h (5 Bft) 94,44 %
12.10.2019 15:00 20,1 C 22,2 C 19,4 C 72 % 1011,4 hPa 0,0 l/m 2 min 0 min 372 W/m 29,0 km/h (5 Bft) 94,74 %
12.10.2019 15:02 20,1 C 21,7 C 19,4 C 71 % 1011,3 hPa 0,0 l/m 2 min 0 min 422 W/m 35,4 km/h (5 Bft) 95,74 %
12.10.2019 15:04 20,1 C 22,2 C 19,4 C 71 % 1011,3 hPa 0,0 l/m 2 min 0 min 423 W/m 22,5 km/h (4 Bft) 95,74 %
12.10.2019 15:06 20,1 C 21,7 C 19,4 C 71 % 1011,2 hPa 0,0 l/m 2 min 0 min 436 W/m 25,7 km/h (4 Bft) 95,83 %
12.10.2019 15:08 20,1 C 20,6 C 18,9 C 71 % 1011,3 hPa 0,0 l/m 2 min 0 min 321 W/m 35,4 km/h (5 Bft) 95,74 %
12.10.2019 15:10 20,1 C 20,0 C 18,9 C 71 % 1011,2 hPa 0,0 l/m 0 min 0 min 196 W/m 19,3 km/h (3 Bft) 93,62 %
12.10.2019 15:12 20,1 C 19,4 C 18,9 C 71 % 1011,3 hPa 0,0 l/m 0 min 0 min 159 W/m 25,7 km/h (4 Bft) 94,44 %
12.10.2019 15:14 20,1 C 19,4 C 18,3 C 71 % 1011,3 hPa 0,0 l/m 0 min 0 min 156 W/m 35,4 km/h (5 Bft) 95,74 %
12.10.2019 15:16 20,0 C 19,4 C 18,3 C 71 % 1011,4 hPa 0,0 l/m 0 min 0 min 174 W/m 22,5 km/h (4 Bft) 94,74 %
12.10.2019 15:18 19,9 C 18,9 C 18,3 C 71 % 1011,5 hPa 0,0 l/m 0 min 0 min 130 W/m 29,0 km/h (5 Bft) 93,75 %
12.10.2019 15:20 19,8 C 18,9 C 18,3 C 71 % 1011,5 hPa 0,0 l/m 0 min 0 min 127 W/m 35,4 km/h (5 Bft) 97,87 %
12.10.2019 15:22 19,8 C 18,9 C 18,3 C 72 % 1011,4 hPa 0,0 l/m 0 min 0 min 129 W/m 22,5 km/h (4 Bft) 97,87 %
12.10.2019 15:24 19,8 C 18,9 C 18,3 C 72 % 1011,5 hPa 0,0 l/m 0 min 0 min 126 W/m 29,0 km/h (5 Bft) 98,15 %
12.10.2019 15:26 19,7 C 18,9 C 18,3 C 72 % 1011,5 hPa 0,0 l/m 0 min 0 min 124 W/m 25,7 km/h (4 Bft) 97,87 %
12.10.2019 15:28 19,7 C 18,9 C 18,3 C 72 % 1011,6 hPa 0,0 l/m 0 min 0 min 112 W/m 22,5 km/h (4 Bft) 100,00 %
12.10.2019 15:30 19,6 C 18,3 C 17,8 C 72 % 1011,5 hPa 0,0 l/m 0 min 0 min 100 W/m 29,0 km/h (5 Bft) 100,00 %
12.10.2019 15:32 19,6 C 18,3 C 17,8 C 73 % 1011,5 hPa 0,0 l/m 0 min 0 min 96 W/m 25,7 km/h (4 Bft) 97,87 %
12.10.2019 15:34 19,5 C 18,3 C 17,8 C 73 % 1011,6 hPa 0,0 l/m 0 min 0 min 95 W/m 25,7 km/h (4 Bft) 100,00 %
12.10.2019 15:36 19,4 C 18,3 C 17,8 C 73 % 1011,6 hPa 0,0 l/m 0 min 0 min 100 W/m 22,5 km/h (4 Bft) 97,87 %
12.10.2019 15:38 19,4 C 18,3 C 17,8 C 73 % 1011,4 hPa 0,0 l/m 0 min 0 min 81 W/m 16,1 km/h (3 Bft) 100,00 %
12.10.2019 15:40 19,4 C 18,3 C 17,8 C 74 % 1011,6 hPa 0,0 l/m 0 min 0 min 70 W/m 19,3 km/h (3 Bft) 100,00 %
12.10.2019 15:42 19,3 C 18,3 C 17,8 C 74 % 1011,5 hPa 0,0 l/m 0 min 0 min 81 W/m 19,3 km/h (3 Bft) 100,00 %
12.10.2019 15:44 19,3 C 18,3 C 17,8 C 74 % 1011,4 hPa 0,0 l/m 0 min 0 min 96 W/m 19,3 km/h (3 Bft) 97,96 %
12.10.2019 15:46 19,3 C 18,3 C 17,8 C 74 % 1011,3 hPa 0,0 l/m 0 min 0 min 102 W/m 16,1 km/h (3 Bft) 100,00 %
12.10.2019 15:48 19,2 C 18,3 C 17,8 C 74 % 1011,3 hPa 0,0 l/m 0 min 0 min 119 W/m 16,1 km/h (3 Bft) 100,00 %
12.10.2019 15:50 19,2 C 18,3 C 17,8 C 74 % 1011,2 hPa 0,0 l/m 0 min 0 min 123 W/m 22,5 km/h (4 Bft) 100,00 %
12.10.2019 15:52 19,2 C 18,9 C 17,8 C 74 % 1011,2 hPa 0,0 l/m 0 min 0 min 138 W/m 19,3 km/h (3 Bft) 97,83 %
12.10.2019 15:54 19,2 C 18,9 C 17,8 C 74 % 1011,2 hPa 0,0 l/m 0 min 0 min 126 W/m 25,7 km/h (4 Bft) 100,00 %
12.10.2019 15:56 19,1 C 18,3 C 17,8 C 74 % 1011,4 hPa 0,0 l/m 0 min 0 min 106 W/m 25,7 km/h (4 Bft) 97,87 %
12.10.2019 15:58 19,1 C 18,3 C 17,8 C 75 % 1011,2 hPa 0,0 l/m 0 min 0 min 133 W/m 22,5 km/h (4 Bft) 100,00 %
12.10.2019 16:00 19,1 C 18,3 C 17,8 C 75 % 1011,2 hPa 0,0 l/m 0 min 0 min 107 W/m 19,3 km/h (3 Bft) 100,00 %
12.10.2019 16:02 19,1 C 18,3 C 17,8 C 75 % 1011,3 hPa 0,0 l/m 0 min 0 min 113 W/m 19,3 km/h (3 Bft) 100,00 %
12.10.2019 16:04 19,1 C 18,3 C 17,8 C 75 % 1011,3 hPa 0,0 l/m 0 min 0 min 98 W/m 12,9 km/h (3 Bft) 100,00 %
12.10.2019 16:06 19,1 C 18,3 C 17,8 C 75 % 1011,4 hPa 0,0 l/m 0 min 0 min 83 W/m 16,1 km/h (3 Bft) 97,37 %
12.10.2019 16:08 19,0 C 18,3 C 17,8 C 75 % 1011,3 hPa 0,0 l/m 0 min 0 min 85 W/m 25,7 km/h (4 Bft) 97,96 %
12.10.2019 16:10 18,9 C 18,3 C 17,8 C 75 % 1011,3 hPa 0,0 l/m 0 min 0 min 110 W/m 12,9 km/h (3 Bft) 97,87 %
12.10.2019 16:12 18,9 C 18,3 C 17,8 C 75 % 1011,3 hPa 0,0 l/m 0 min 0 min 112 W/m 19,3 km/h (3 Bft) 97,83 %
12.10.2019 16:14 18,9 C 18,3 C 17,8 C 75 % 1011,2 hPa 0,0 l/m 0 min 0 min 93 W/m 25,7 km/h (4 Bft) 96,36 %
12.10.2019 16:16 18,9 C 18,3 C 17,8 C 75 % 1011,2 hPa 0,0 l/m 0 min 0 min 84 W/m 16,1 km/h (3 Bft) 97,37 %
12.10.2019 16:18 18,9 C 17,8 C 17,2 C 75 % 1011,3 hPa 0,0 l/m 0 min 0 min 80 W/m 19,3 km/h (3 Bft) 95,65 %
12.10.2019 16:20 18,8 C 17,8 C 17,2 C 76 % 1011,3 hPa 0,0 l/m 0 min 0 min 73 W/m 16,1 km/h (3 Bft) 97,87 %
12.10.2019 16:22 18,8 C 17,8 C 17,2 C 76 % 1011,3 hPa 0,0 l/m 0 min 0 min 60 W/m 16,1 km/h (3 Bft) 97,96 %
12.10.2019 16:24 18,8 C 17,8 C 17,2 C 76 % 1011,3 hPa 0,0 l/m 0 min 0 min 54 W/m 16,1 km/h (3 Bft) 97,83 %
12.10.2019 16:26 18,8 C 17,8 C 17,2 C 76 % 1011,3 hPa 0,0 l/m 0 min 0 min 54 W/m 22,5 km/h (4 Bft) 97,87 %
12.10.2019 16:28 18,8 C 17,8 C 17,2 C 76 % 1011,3 hPa 0,0 l/m 0 min 0 min 45 W/m 12,9 km/h (3 Bft) 98,15 %
12.10.2019 16:30 18,7 C 17,8 C 17,2 C 76 % 1011,2 hPa 0,0 l/m 0 min 0 min 43 W/m 12,9 km/h (3 Bft) 97,87 %
12.10.2019 16:32 18,7 C 17,8 C 17,2 C 77 % 1011,3 hPa 0,0 l/m 0 min 0 min 52 W/m 19,3 km/h (3 Bft) 95,74 %
12.10.2019 16:34 18,7 C 17,8 C 17,2 C 77 % 1011,3 hPa 0,0 l/m 0 min 0 min 50 W/m 16,1 km/h (3 Bft) 97,37 %
12.10.2019 16:36 18,6 C 17,8 C 17,2 C 77 % 1011,2 hPa 0,0 l/m 0 min 0 min 85 W/m 22,5 km/h (4 Bft) 97,87 %
12.10.2019 16:38 18,6 C 17,8 C 17,2 C 77 % 1011,1 hPa 0,0 l/m 0 min 0 min 92 W/m 19,3 km/h (3 Bft) 97,92 %
12.10.2019 16:40 18,6 C 17,8 C 17,2 C 77 % 1011,2 hPa 0,0 l/m 0 min 0 min 89 W/m 25,7 km/h (4 Bft) 97,87 %
12.10.2019 16:42 18,6 C 18,3 C 17,2 C 77 % 1011,2 hPa 0,0 l/m 2 min 0 min 148 W/m 22,5 km/h (4 Bft) 98,15 %
12.10.2019 16:44 18,6 C 18,9 C 17,8 C 77 % 1011,1 hPa 0,0 l/m 2 min 0 min 176 W/m 19,3 km/h (3 Bft) 97,37 %
12.10.2019 16:46 18,6 C 18,3 C 17,8 C 77 % 1011,1 hPa 0,0 l/m 0 min 0 min 123 W/m 16,1 km/h (3 Bft) 97,96 %
12.10.2019 16:48 18,6 C 18,3 C 17,2 C 77 % 1011,0 hPa 0,0 l/m 0 min 0 min 93 W/m 16,1 km/h (3 Bft) 97,83 %
12.10.2019 16:50 18,6 C 18,3 C 17,2 C 77 % 1011,0 hPa 0,0 l/m 0 min 0 min 87 W/m 19,3 km/h (3 Bft) 97,87 %
12.10.2019 16:52 18,6 C 17,8 C 17,2 C 77 % 1011,0 hPa 0,0 l/m 0 min 0 min 78 W/m 12,9 km/h (3 Bft) 100,00 %
12.10.2019 16:54 18,6 C 17,8 C 17,2 C 77 % 1010,9 hPa 0,0 l/m 0 min 0 min 81 W/m 16,1 km/h (3 Bft) 98,15 %
12.10.2019 16:56 18,5 C 17,8 C 17,2 C 77 % 1010,9 hPa 0,0 l/m 0 min 0 min 79 W/m 25,7 km/h (4 Bft) 95,74 %
12.10.2019 16:58 18,5 C 17,8 C 17,2 C 77 % 1010,8 hPa 0,0 l/m 0 min 0 min 70 W/m 19,3 km/h (3 Bft) 97,87 %
12.10.2019 17:00 18,5 C 17,8 C 17,2 C 77 % 1010,8 hPa 0,0 l/m 0 min 0 min 68 W/m 12,9 km/h (3 Bft) 95,74 %
12.10.2019 17:02 18,5 C 17,8 C 17,2 C 77 % 1010,7 hPa 0,0 l/m 0 min 0 min 57 W/m 12,9 km/h (3 Bft) 97,37 %
12.10.2019 17:04 18,5 C 17,8 C 17,2 C 77 % 1010,7 hPa 0,0 l/m 0 min 0 min 53 W/m 19,3 km/h (3 Bft) 97,83 %
12.10.2019 17:06 18,4 C 17,8 C 17,2 C 77 % 1010,7 hPa 0,0 l/m 0 min 0 min 45 W/m 12,9 km/h (3 Bft) 100,00 %
12.10.2019 17:08 18,4 C 17,8 C 17,2 C 77 % 1010,7 hPa 0,0 l/m 0 min 0 min 36 W/m 16,1 km/h (3 Bft) 91,49 %
12.10.2019 17:10 18,4 C 17,8 C 17,2 C 77 % 1010,6 hPa 0,0 l/m 0 min 0 min 35 W/m 6,4 km/h (2 Bft) 50,00 %
12.10.2019 17:12 18,4 C 17,2 C 16,7 C 78 % 1010,7 hPa 0,0 l/m 0 min 0 min 33 W/m 6,4 km/h (2 Bft) 100,00 %
12.10.2019 17:14 18,4 C 17,2 C 16,7 C 78 % 1010,7 hPa 0,0 l/m 0 min 0 min 33 W/m 6,4 km/h (2 Bft) 97,92 %
12.10.2019 17:16 18,4 C 17,2 C 16,7 C 78 % 1010,7 hPa 0,0 l/m 0 min 0 min 35 W/m 6,4 km/h (2 Bft) 97,87 %
12.10.2019 17:18 18,4 C 17,2 C 16,7 C 78 % 1010,6 hPa 0,0 l/m 0 min 0 min 38 W/m 6,4 km/h (2 Bft) 96,30 %
12.10.2019 17:20 18,4 C 17,2 C 16,7 C 78 % 1010,6 hPa 0,0 l/m 0 min 0 min 35 W/m 12,9 km/h (3 Bft) 93,62 %
12.10.2019 17:22 18,4 C 17,2 C 16,7 C 78 % 1010,6 hPa 0,0 l/m 0 min 0 min 43 W/m 6,4 km/h (2 Bft) 97,37 %
12.10.2019 17:24 18,4 C 17,2 C 16,7 C 78 % 1010,5 hPa 0,0 l/m 0 min 0 min 54 W/m 12,9 km/h (3 Bft) 95,83 %
12.10.2019 17:26 18,3 C 17,2 C 17,2 C 78 % 1010,5 hPa 0,0 l/m 0 min 0 min 58 W/m 6,4 km/h (2 Bft) 95,74 %
12.10.2019 17:28 18,3 C 17,2 C 17,2 C 78 % 1010,4 hPa 0,0 l/m 0 min 0 min 48 W/m 12,9 km/h (3 Bft) 96,30 %
12.10.2019 17:30 18,3 C 17,2 C 16,7 C 78 % 1010,4 hPa 0,0 l/m 0 min 0 min 37 W/m 12,9 km/h (3 Bft) 94,74 %
12.10.2019 17:32 18,3 C 17,2 C 16,7 C 78 % 1010,4 hPa 0,0 l/m 0 min 0 min 25 W/m 12,9 km/h (3 Bft) 97,96 %
12.10.2019 17:34 18,3 C 17,2 C 16,7 C 78 % 1010,4 hPa 0,0 l/m 0 min 0 min 15 W/m 12,9 km/h (3 Bft) 97,83 %
12.10.2019 17:36 18,3 C 17,2 C 16,7 C 79 % 1010,3 hPa 0,0 l/m 0 min 0 min 13 W/m 6,4 km/h (2 Bft) 96,30 %
12.10.2019 17:38 18,3 C 17,2 C 16,7 C 79 % 1010,3 hPa 0,0 l/m 0 min 0 min 11 W/m 12,9 km/h (3 Bft) 97,37 %
12.10.2019 17:40 18,3 C 17,2 C 16,7 C 79 % 1010,3 hPa 0,0 l/m 0 min 0 min 12 W/m 6,4 km/h (2 Bft) 95,92 %
12.10.2019 17:42 18,3 C 17,2 C 16,7 C 79 % 1010,4 hPa 0,0 l/m 0 min 0 min 12 W/m 6,4 km/h (2 Bft) 95,74 %
12.10.2019 17:44 18,2 C 17,2 C 16,7 C 79 % 1010,4 hPa 0,0 l/m 0 min 0 min 9 W/m 6,4 km/h (2 Bft) 94,44 %
12.10.2019 17:46 18,2 C 16,7 C 16,7 C 79 % 1010,4 hPa 0,0 l/m 0 min 0 min 10 W/m 3,2 km/h (1 Bft) 94,74 %
12.10.2019 17:48 18,2 C 16,7 C 16,7 C 79 % 1010,4 hPa 0,0 l/m 0 min 0 min 11 W/m 6,4 km/h (2 Bft) 95,83 %
12.10.2019 17:50 18,2 C 16,7 C 16,7 C 79 % 1010,4 hPa 0,0 l/m 0 min 0 min 11 W/m 12,9 km/h (3 Bft) 95,74 %
12.10.2019 17:52 18,2 C 16,7 C 16,7 C 79 % 1010,4 hPa 0,0 l/m 0 min 0 min 14 W/m 6,4 km/h (2 Bft) 96,30 %
12.10.2019 17:54 18,2 C 16,7 C 16,7 C 79 % 1010,4 hPa 0,0 l/m 0 min 0 min 12 W/m 6,4 km/h (2 Bft) 95,74 %
12.10.2019 17:56 18,2 C 16,7 C 16,7 C 79 % 1010,4 hPa 0,0 l/m 0 min 0 min 9 W/m 6,4 km/h (2 Bft) 95,74 %
12.10.2019 17:58 18,2 C 16,7 C 16,1 C 79 % 1010,4 hPa 0,0 l/m 0 min 0 min 7 W/m 6,4 km/h (2 Bft) 93,62 %
12.10.2019 18:00 18,2 C 16,7 C 16,1 C 79 % 1010,3 hPa 0,0 l/m 0 min 0 min 9 W/m 3,2 km/h (1 Bft) 94,74 %
12.10.2019 18:02 18,1 C 16,7 C 16,1 C 80 % 1010,3 hPa 0,0 l/m 0 min 0 min 7 W/m 3,2 km/h (1 Bft) 95,83 %
12.10.2019 18:04 18,1 C 16,7 C 16,1 C 80 % 1010,4 hPa 0,0 l/m 0 min 0 min 7 W/m 0,0 km/h (0 Bft) 95,74 %
12.10.2019 18:08 18,1 C 16,7 C 16,1 C 80 % 1010,3 hPa 0,0 l/m 0 min 0 min 8 W/m 3,2 km/h (1 Bft) 97,03 %
12.10.2019 18:10 18,1 C 16,7 C 15,6 C 80 % 1010,3 hPa 0,0 l/m 0 min 0 min 5 W/m 0,0 km/h (0 Bft) 97,37 %
12.10.2019 18:12 18,1 C 16,7 C 15,6 C 81 % 1010,3 hPa 0,0 l/m 0 min 0 min 6 W/m 0,0 km/h (0 Bft) 95,74 %
12.10.2019 18:14 18,1 C 16,7 C 15,6 C 81 % 1010,3 hPa 0,0 l/m 0 min 0 min 6 W/m 0,0 km/h (0 Bft) 97,92 %
12.10.2019 18:16 18,0 C 16,7 C 15,6 C 81 % 1010,3 hPa 0,0 l/m 0 min 0 min 5 W/m 0,0 km/h (0 Bft) 95,74 %
12.10.2019 18:18 18,0 C 16,1 C 15,6 C 81 % 1010,3 hPa 0,0 l/m 0 min 0 min 5 W/m 0,0 km/h (0 Bft) 98,15 %
12.10.2019 18:20 18,0 C 16,7 C 15,6 C 81 % 1010,3 hPa 0,0 l/m 0 min 0 min 5 W/m 3,2 km/h (1 Bft) 97,37 %
12.10.2019 18:22 17,9 C 16,7 C 15,6 C 81 % 1010,4 hPa 0,0 l/m 0 min 0 min 3 W/m 3,2 km/h (1 Bft) 97,87 %
12.10.2019 18:24 17,9 C 16,7 C 15,6 C 81 % 1010,4 hPa 0,0 l/m 0 min 0 min 2 W/m 3,2 km/h (1 Bft) 97,87 %
12.10.2019 18:26 17,9 C 16,1 C 15,6 C 81 % 1010,3 hPa 0,0 l/m 0 min 0 min 4 W/m 0,0 km/h (0 Bft) 97,92 %
12.10.2019 18:28 17,9 C 16,1 C 15,6 C 81 % 1010,3 hPa 0,0 l/m 0 min 0 min 2 W/m 0,0 km/h (0 Bft) 97,87 %
12.10.2019 18:30 17,9 C 16,1 C 15,6 C 81 % 1010,3 hPa 0,0 l/m 0 min 0 min 5 W/m 3,2 km/h (1 Bft) 100,00 %
12.10.2019 18:32 17,8 C 16,1 C 15,6 C 81 % 1010,3 hPa 0,0 l/m 0 min 2 min 5 W/m 3,2 km/h (1 Bft) 100,00 %
12.10.2019 18:34 17,8 C 16,1 C 15,6 C 81 % 1010,3 hPa 0,0 l/m 0 min 0 min 5 W/m 0,0 km/h (0 Bft) 100,00 %
12.10.2019 18:36 17,8 C 16,1 C 15,6 C 82 % 1010,3 hPa 0,0 l/m 0 min 0 min 5 W/m 3,2 km/h (1 Bft) 100,00 %
12.10.2019 18:38 17,8 C 16,1 C 15,6 C 82 % 1010,3 hPa 0,0 l/m 0 min 0 min 2 W/m 6,4 km/h (2 Bft) 100,00 %
12.10.2019 18:40 17,8 C 16,1 C 15,6 C 82 % 1010,4 hPa 0,0 l/m 0 min 0 min 0 W/m 3,2 km/h (1 Bft) 100,00 %
12.10.2019 18:42 17,7 C 16,1 C 15,6 C 82 % 1010,3 hPa 0,0 l/m 0 min 0 min 0 W/m 3,2 km/h (1 Bft) 100,00 %
12.10.2019 18:44 17,7 C 16,1 C 15,6 C 82 % 1010,2 hPa 0,0 l/m 0 min 0 min 0 W/m 6,4 km/h (2 Bft) 97,87 %
12.10.2019 18:46 17,7 C 16,1 C 15,6 C 82 % 1010,2 hPa 0,0 l/m 0 min 0 min 0 W/m 3,2 km/h (1 Bft) 100,00 %
12.10.2019 18:48 17,7 C 16,1 C 15,6 C 82 % 1010,2 hPa 0,0 l/m 0 min 0 min 0 W/m 6,4 km/h (2 Bft) 100,00 %
12.10.2019 18:50 17,7 C 16,1 C 15,6 C 82 % 1010,2 hPa 0,0 l/m 0 min 0 min 0 W/m 6,4 km/h (2 Bft) 100,00 %
12.10.2019 18:52 17,6 C 16,1 C 15,6 C 83 % 1010,3 hPa 0,0 l/m 0 min 0 min 0 W/m 3,2 km/h (1 Bft) 97,96 %
12.10.2019 18:54 17,6 C 16,1 C 15,6 C 83 % 1010,3 hPa 0,0 l/m 0 min 0 min 0 W/m 6,4 km/h (2 Bft) 100,00 %
12.10.2019 18:56 17,6 C 16,1 C 15,6 C 83 % 1010,3 hPa 0,0 l/m 0 min 0 min 0 W/m 6,4 km/h (2 Bft) 98,15 %
12.10.2019 18:58 17,6 C 16,1 C 15,6 C 83 % 1010,2 hPa 0,0 l/m 0 min 0 min 0 W/m 6,4 km/h (2 Bft) 100,00 %
12.10.2019 19:00 17,6 C 16,1 C 15,6 C 83 % 1010,2 hPa 0,0 l/m 0 min 0 min 0 W/m 3,2 km/h (1 Bft) 100,00 %
12.10.2019 19:02 17,6 C 16,1 C 15,6 C 83 % 1010,2 hPa 0,0 l/m 0 min 0 min 0 W/m 6,4 km/h (2 Bft) 100,00 %
12.10.2019 19:04 17,5 C 16,7 C 16,1 C 83 % 1010,1 hPa 0,0 l/m 0 min 0 min 0 W/m 12,9 km/h (3 Bft) 100,00 %
12.10.2019 19:06 17,5 C 16,7 C 16,1 C 84 % 1010,1 hPa 0,0 l/m 0 min 0 min 0 W/m 12,9 km/h (3 Bft) 100,00 %
12.10.2019 19:08 17,5 C 16,7 C 16,1 C 84 % 1010,1 hPa 0,0 l/m 0 min 0 min 0 W/m 12,9 km/h (3 Bft) 100,00 %
12.10.2019 19:10 17,5 C 16,7 C 16,1 C 84 % 1010,1 hPa 0,0 l/m 0 min 0 min 0 W/m 16,1 km/h (3 Bft) 93,48 %
12.10.2019 19:12 17,5 C 16,7 C 16,1 C 84 % 1010,1 hPa 0,0 l/m 0 min 0 min 0 W/m 12,9 km/h (3 Bft) 97,37 %
12.10.2019 19:14 17,5 C 16,7 C 16,1 C 84 % 1010,1 hPa 0,0 l/m 0 min 0 min 0 W/m 12,9 km/h (3 Bft) 95,92 %
12.10.2019 19:16 17,5 C 16,7 C 16,1 C 84 % 1010,1 hPa 0,0 l/m 0 min 0 min 0 W/m 16,1 km/h (3 Bft) 100,00 %
12.10.2019 19:18 17,5 C 16,7 C 16,1 C 84 % 1010,2 hPa 0,0 l/m 0 min 0 min 0 W/m 6,4 km/h (2 Bft) 100,00 %
12.10.2019 19:20 17,5 C 16,7 C 16,1 C 85 % 1010,2 hPa 0,0 l/m 0 min 0 min 0 W/m 12,9 km/h (3 Bft) 97,37 %
12.10.2019 19:22 17,5 C 16,7 C 16,1 C 85 % 1010,2 hPa 0,0 l/m 0 min 0 min 0 W/m 12,9 km/h (3 Bft) 100,00 %
12.10.2019 19:24 17,5 C 16,7 C 16,7 C 85 % 1010,3 hPa 0,0 l/m 0 min 0 min 0 W/m 12,9 km/h (3 Bft) 100,00 %
12.10.2019 19:26 17,5 C 16,7 C 16,1 C 85 % 1010,3 hPa 0,0 l/m 0 min 0 min 0 W/m 6,4 km/h (2 Bft) 98,15 %
12.10.2019 19:28 17,5 C 16,7 C 16,1 C 85 % 1010,4 hPa 0,0 l/m 0 min 0 min 0 W/m 6,4 km/h (2 Bft) 97,87 %
12.10.2019 19:30 17,6 C 16,7 C 16,1 C 85 % 1010,3 hPa 0,0 l/m 0 min 0 min 0 W/m 12,9 km/h (3 Bft) 97,37 %
12.10.2019 19:32 17,6 C 16,7 C 16,7 C 85 % 1010,3 hPa 0,0 l/m 0 min 0 min 0 W/m 16,1 km/h (3 Bft) 97,92 %
12.10.2019 19:34 17,6 C 17,2 C 16,7 C 85 % 1010,3 hPa 0,0 l/m 0 min 0 min 0 W/m 16,1 km/h (3 Bft) 97,87 %
12.10.2019 19:36 17,6 C 17,2 C 16,7 C 85 % 1010,3 hPa 0,0 l/m 0 min 0 min 0 W/m 12,9 km/h (3 Bft) 94,44 %
12.10.2019 19:38 17,6 C 17,2 C 16,7 C 85 % 1010,3 hPa 0,0 l/m 0 min 0 min 0 W/m 12,9 km/h (3 Bft) 100,00 %
12.10.2019 19:40 17,6 C 17,2 C 16,7 C 84 % 1010,4 hPa 0,0 l/m 0 min 0 min 0 W/m 12,9 km/h (3 Bft) 97,87 %
12.10.2019 19:42 17,6 C 17,2 C 16,7 C 84 % 1010,4 hPa 0,0 l/m 0 min 0 min 0 W/m 16,1 km/h (3 Bft) 95,83 %
12.10.2019 19:44 17,7 C 17,2 C 16,7 C 84 % 1010,4 hPa 0,0 l/m 0 min 0 min 0 W/m 12,9 km/h (3 Bft) 95,74 %
12.10.2019 19:46 17,7 C 17,2 C 16,7 C 84 % 1010,4 hPa 0,0 l/m 0 min 0 min 0 W/m 9,7 km/h (2 Bft) 98,15 %
12.10.2019 19:48 17,7 C 17,2 C 16,7 C 84 % 1010,5 hPa 0,0 l/m 0 min 0 min 0 W/m 6,4 km/h (2 Bft) 100,00 %
12.10.2019 19:50 17,7 C 17,2 C 16,7 C 84 % 1010,5 hPa 0,0 l/m 0 min 0 min 0 W/m 12,9 km/h (3 Bft) 97,87 %
12.10.2019 19:52 17,8 C 17,2 C 16,7 C 84 % 1010,5 hPa 0,0 l/m 0 min 0 min 0 W/m 12,9 km/h (3 Bft) 97,37 %
12.10.2019 19:54 17,8 C 17,2 C 16,7 C 84 % 1010,6 hPa 0,0 l/m 0 min 0 min 0 W/m 9,7 km/h (2 Bft) 97,92 %
12.10.2019 19:56 17,8 C 17,2 C 16,7 C 84 % 1010,6 hPa 0,0 l/m 0 min 0 min 0 W/m 12,9 km/h (3 Bft) 97,87 %
12.10.2019 19:58 17,8 C 17,2 C 16,7 C 84 % 1010,6 hPa 0,0 l/m 0 min 0 min 0 W/m 6,4 km/h (2 Bft) 93,62 %
12.10.2019 20:00 17,8 C 17,2 C 16,7 C 84 % 1010,6 hPa 0,0 l/m 0 min 0 min 0 W/m 6,4 km/h (2 Bft) 93,62 %
12.10.2019 20:02 17,8 C 17,2 C 16,7 C 84 % 1010,6 hPa 0,0 l/m 0 min 0 min 0 W/m 6,4 km/h (2 Bft) 93,62 %
12.10.2019 20:04 17,9 C 17,2 C 16,7 C 84 % 1010,6 hPa 0,0 l/m 0 min 0 min 0 W/m 9,7 km/h (2 Bft) 93,62 %
12.10.2019 20:06 17,9 C 17,2 C 16,7 C 84 % 1010,6 hPa 0,0 l/m 0 min 0 min 0 W/m 12,9 km/h (3 Bft) 95,65 %
12.10.2019 20:08 17,9 C 17,2 C 16,7 C 84 % 1010,6 hPa 0,0 l/m 0 min 0 min 0 W/m 12,9 km/h (3 Bft) 95,74 %
12.10.2019 20:10 17,9 C 17,2 C 16,7 C 84 % 1010,5 hPa 0,0 l/m 0 min 0 min 0 W/m 12,9 km/h (3 Bft) 95,74 %
12.10.2019 20:12 17,9 C 17,2 C 16,7 C 84 % 1010,6 hPa 0,0 l/m 0 min 0 min 0 W/m 6,4 km/h (2 Bft) 95,74 %
12.10.2019 20:14 17,9 C 17,2 C 16,7 C 84 % 1010,5 hPa 0,0 l/m 0 min 0 min 0 W/m 3,2 km/h (1 Bft) 95,74 %
12.10.2019 20:16 17,9 C 17,2 C 16,7 C 84 % 1010,6 hPa 0,0 l/m 0 min 0 min 0 W/m 3,2 km/h (1 Bft) 95,65 %
12.10.2019 20:18 17,9 C 17,2 C 16,7 C 84 % 1010,5 hPa 0,0 l/m 0 min 0 min 0 W/m 6,4 km/h (2 Bft) 93,62 %
12.10.2019 20:20 17,9 C 17,2 C 16,7 C 84 % 1010,5 hPa 0,0 l/m 0 min 0 min 0 W/m 3,2 km/h (1 Bft) 95,74 %
12.10.2019 20:22 17,9 C 17,2 C 16,7 C 84 % 1010,5 hPa 0,0 l/m 0 min 0 min 0 W/m 3,2 km/h (1 Bft) 91,49 %
12.10.2019 20:24 17,9 C 17,2 C 16,7 C 84 % 1010,5 hPa 0,0 l/m 0 min 0 min 0 W/m 6,4 km/h (2 Bft) 95,74 %
12.10.2019 20:26 17,9 C 17,2 C 16,7 C 84 % 1010,3 hPa 0,0 l/m 0 min 0 min 0 W/m 12,9 km/h (3 Bft) 93,62 %
12.10.2019 20:28 17,9 C 17,2 C 16,7 C 84 % 1010,3 hPa 0,0 l/m 0 min 0 min 0 W/m 12,9 km/h (3 Bft) 93,48 %
12.10.2019 20:30 17,9 C 17,2 C 16,7 C 84 % 1010,3 hPa 0,0 l/m 0 min 0 min 0 W/m 6,4 km/h (2 Bft) 97,87 %
12.10.2019 20:32 17,9 C 17,2 C 16,7 C 84 % 1010,3 hPa 0,0 l/m 0 min 0 min 0 W/m 6,4 km/h (2 Bft) 93,62 %
12.10.2019 20:34 17,9 C 17,2 C 16,7 C 83 % 1010,3 hPa 0,0 l/m 0 min 0 min 0 W/m 6,4 km/h (2 Bft) 95,74 %
12.10.2019 20:36 17,9 C 17,2 C 16,7 C 83 % 1010,3 hPa 0,0 l/m 0 min 0 min 0 W/m 6,4 km/h (2 Bft) 95,74 %
12.10.2019 20:38 17,9 C 17,2 C 16,7 C 83 % 1010,3 hPa 0,0 l/m 0 min 0 min 0 W/m 6,4 km/h (2 Bft) 93,62 %
12.10.2019 20:40 17,9 C 17,2 C 16,7 C 83 % 1010,3 hPa 0,0 l/m 0 min 0 min 0 W/m 6,4 km/h (2 Bft) 93,48 %
12.10.2019 20:42 17,9 C 17,2 C 16,7 C 83 % 1010,3 hPa 0,0 l/m 0 min 0 min 0 W/m 3,2 km/h (1 Bft) 95,74 %
12.10.2019 20:44 17,9 C 16,7 C 16,7 C 83 % 1010,2 hPa 0,0 l/m 0 min 0 min 0 W/m 6,4 km/h (2 Bft) 97,87 %
12.10.2019 20:46 17,9 C 16,7 C 16,7 C 83 % 1010,2 hPa 0,0 l/m 0 min 0 min 0 W/m 3,2 km/h (1 Bft) 97,87 %
12.10.2019 20:48 17,9 C 16,7 C 16,7 C 84 % 1010,3 hPa 0,0 l/m 0 min 0 min 0 W/m 3,2 km/h (1 Bft) 97,87 %
12.10.2019 20:50 17,9 C 16,7 C 16,7 C 84 % 1010,3 hPa 0,0 l/m 0 min 0 min 0 W/m 6,4 km/h (2 Bft) 97,87 %
12.10.2019 20:52 17,9 C 16,7 C 16,7 C 84 % 1010,3 hPa 0,0 l/m 0 min 0 min 0 W/m 3,2 km/h (1 Bft) 97,83 %
12.10.2019 20:54 17,9 C 16,7 C 16,7 C 84 % 1010,3 hPa 0,0 l/m 0 min 0 min 0 W/m 6,4 km/h (2 Bft) 97,87 %
12.10.2019 20:56 17,9 C 16,7 C 16,7 C 84 % 1010,3 hPa 0,0 l/m 0 min 0 min 0 W/m 6,4 km/h (2 Bft) 97,87 %
12.10.2019 20:58 17,9 C 16,7 C 16,7 C 84 % 1010,2 hPa 0,0 l/m 0 min 0 min 0 W/m 3,2 km/h (1 Bft) 97,87 %
12.10.2019 21:00 17,9 C 16,7 C 16,7 C 84 % 1010,3 hPa 0,0 l/m 0 min 0 min 0 W/m 6,4 km/h (2 Bft) 97,87 %
12.10.2019 21:02 17,9 C 16,7 C 16,1 C 84 % 1010,2 hPa 0,0 l/m 0 min 0 min 0 W/m 6,4 km/h (2 Bft) 95,74 %
12.10.2019 21:04 17,9 C 16,7 C 16,1 C 84 % 1010,3 hPa 0,0 l/m 0 min 0 min 0 W/m 6,4 km/h (2 Bft) 97,83 %
12.10.2019 21:06 17,9 C 16,7 C 16,1 C 84 % 1010,2 hPa 0,0 l/m 0 min 0 min 0 W/m 6,4 km/h (2 Bft) 95,74 %
12.10.2019 21:08 17,9 C 16,7 C 16,1 C 84 % 1010,3 hPa 0,0 l/m 0 min 0 min 0 W/m 6,4 km/h (2 Bft) 95,74 %
12.10.2019 21:10 17,9 C 16,7 C 16,1 C 84 % 1010,3 hPa 0,0 l/m 0 min 0 min 0 W/m 6,4 km/h (2 Bft) 97,87 %
12.10.2019 21:12 17,9 C 16,7 C 16,1 C 84 % 1010,3 hPa 0,0 l/m 0 min 0 min 0 W/m 6,4 km/h (2 Bft) 97,87 %
12.10.2019 21:14 17,9 C 16,7 C 16,1 C 84 % 1010,4 hPa 0,0 l/m 0 min 0 min 0 W/m 6,4 km/h (2 Bft) 97,87 %
12.10.2019 21:16 17,8 C 16,7 C 16,1 C 84 % 1010,4 hPa 0,0 l/m 0 min 0 min 0 W/m 9,7 km/h (2 Bft) 97,83 %
12.10.2019 21:18 17,8 C 16,7 C 16,1 C 84 % 1010,4 hPa 0,0 l/m 0 min 0 min 0 W/m 9,7 km/h (2 Bft) 97,87 %
12.10.2019 21:20 17,8 C 16,7 C 16,1 C 84 % 1010,5 hPa 0,0 l/m 0 min 0 min 0 W/m 9,7 km/h (2 Bft) 97,87 %
12.10.2019 21:22 17,8 C 16,7 C 16,1 C 84 % 1010,5 hPa 0,0 l/m 0 min 0 min 0 W/m 6,4 km/h (2 Bft) 100,00 %
12.10.2019 21:24 17,8 C 16,7 C 16,1 C 84 % 1010,4 hPa 0,0 l/m 0 min 0 min 0 W/m 6,4 km/h (2 Bft) 100,00 %
12.10.2019 21:26 17,8 C 16,1 C 16,1 C 84 % 1010,4 hPa 0,0 l/m 0 min 0 min 0 W/m 6,4 km/h (2 Bft) 100,00 %
12.10.2019 21:28 17,8 C 16,1 C 16,1 C 84 % 1010,3 hPa 0,0 l/m 0 min 0 min 0 W/m 6,4 km/h (2 Bft) 100,00 %
12.10.2019 21:30 17,7 C 16,1 C 15,6 C 84 % 1010,4 hPa 0,0 l/m 0 min 0 min 0 W/m 6,4 km/h (2 Bft) 100,00 %
12.10.2019 21:32 17,7 C 16,1 C 15,6 C 84 % 1010,4 hPa 0,0 l/m 0 min 0 min 0 W/m 3,2 km/h (1 Bft) 100,00 %
12.10.2019 21:34 17,7 C 16,1 C 15,6 C 84 % 1010,5 hPa 0,0 l/m 0 min 0 min 0 W/m 6,4 km/h (2 Bft) 100,00 %
12.10.2019 21:36 17,7 C 16,1 C 15,6 C 84 % 1010,5 hPa 0,0 l/m 0 min 0 min 0 W/m 6,4 km/h (2 Bft) 100,00 %
12.10.2019 21:38 17,7 C 16,1 C 15,6 C 84 % 1010,5 hPa 0,0 l/m 0 min 0 min 0 W/m 6,4 km/h (2 Bft) 97,83 %
12.10.2019 21:40 17,7 C 16,1 C 15,6 C 84 % 1010,6 hPa 0,0 l/m 0 min 0 min 0 W/m 9,7 km/h (2 Bft) 100,00 %
12.10.2019 21:42 17,6 C 16,1 C 15,6 C 84 % 1010,6 hPa 0,0 l/m 0 min 0 min 0 W/m 9,7 km/h (2 Bft) 100,00 %
12.10.2019 21:44 17,6 C 16,1 C 15,6 C 84 % 1010,7 hPa 0,0 l/m 0 min 0 min 0 W/m 6,4 km/h (2 Bft) 100,00 %
12.10.2019 21:46 17,6 C 15,6 C 15,6 C 85 % 1010,7 hPa 0,0 l/m 0 min 0 min 0 W/m 6,4 km/h (2 Bft) 95,74 %
12.10.2019 21:48 17,5 C 15,6 C 15,0 C 85 % 1010,7 hPa 0,0 l/m 0 min 0 min 0 W/m 6,4 km/h (2 Bft) 100,00 %
12.10.2019 21:50 17,5 C 15,6 C 15,0 C 85 % 1010,8 hPa 0,0 l/m 0 min 0 min 0 W/m 6,4 km/h (2 Bft) 100,00 %
12.10.2019 21:52 17,4 C 15,6 C 15,0 C 85 % 1010,8 hPa 0,0 l/m 0 min 0 min 0 W/m 6,4 km/h (2 Bft) 100,00 %
12.10.2019 21:54 17,4 C 15,6 C 15,0 C 85 % 1010,8 hPa 0,0 l/m 0 min 0 min 0 W/m 3,2 km/h (1 Bft) 100,00 %
12.10.2019 21:56 17,4 C 15,6 C 15,0 C 85 % 1010,9 hPa 0,0 l/m 0 min 0 min 0 W/m 3,2 km/h (1 Bft) 100,00 %
12.10.2019 21:58 17,3 C 15,6 C 14,4 C 85 % 1010,9 hPa 0,0 l/m 0 min 0 min 0 W/m 0,0 km/h (0 Bft) 100,00 %
12.10.2019 22:00 17,3 C 15,6 C 14,4 C 85 % 1010,9 hPa 0,0 l/m 0 min 0 min 0 W/m 3,2 km/h (1 Bft) 100,00 %
12.10.2019 22:02 17,3 C 15,6 C 15,0 C 85 % 1010,8 hPa 0,0 l/m 0 min 0 min 0 W/m 6,4 km/h (2 Bft) 100,00 %
12.10.2019 22:04 17,2 C 15,6 C 15,0 C 86 % 1010,8 hPa 0,0 l/m 0 min 0 min 0 W/m 6,4 km/h (2 Bft) 97,87 %
12.10.2019 22:06 17,2 C 15,6 C 15,0 C 86 % 1010,9 hPa 0,0 l/m 0 min 0 min 0 W/m 6,4 km/h (2 Bft) 100,00 %
12.10.2019 22:08 17,2 C 15,6 C 15,0 C 86 % 1010,8 hPa 0,0 l/m 0 min 0 min 0 W/m 6,4 km/h (2 Bft) 100,00 %
12.10.2019 22:10 17,1 C 15,6 C 15,6 C 86 % 1010,9 hPa 0,0 l/m 0 min 0 min 0 W/m 6,4 km/h (2 Bft) 100,00 %
12.10.2019 22:12 17,1 C 15,6 C 15,6 C 86 % 1010,9 hPa 0,0 l/m 0 min 0 min 0 W/m 6,4 km/h (2 Bft) 100,00 %
12.10.2019 22:14 17,1 C 15,6 C 15,6 C 86 % 1010,9 hPa 0,0 l/m 0 min 0 min 0 W/m 9,7 km/h (2 Bft) 100,00 %
12.10.2019 22:16 17,1 C 15,6 C 15,6 C 86 % 1010,8 hPa 0,0 l/m 0 min 0 min 0 W/m 9,7 km/h (2 Bft) 100,00 %
12.10.2019 22:18 17,1 C 15,6 C 15,6 C 86 % 1010,8 hPa 0,0 l/m 0 min 0 min 0 W/m 9,7 km/h (2 Bft) 100,00 %
12.10.2019 22:20 17,0 C 15,6 C 15,6 C 86 % 1010,8 hPa 0,0 l/m 0 min 0 min 0 W/m 6,4 km/h (2 Bft) 100,00 %
12.10.2019 22:22 17,0 C 15,6 C 15,0 C 87 % 1010,8 hPa 0,0 l/m 0 min 0 min 0 W/m 9,7 km/h (2 Bft) 100,00 %
12.10.2019 22:24 16,9 C 15,6 C 15,0 C 87 % 1010,8 hPa 0,0 l/m 0 min 0 min 0 W/m 9,7 km/h (2 Bft) 100,00 %
12.10.2019 22:26 16,9 C 15,6 C 15,6 C 87 % 1010,9 hPa 0,0 l/m 0 min 0 min 0 W/m 6,4 km/h (2 Bft) 100,00 %
12.10.2019 22:28 16,9 C 15,6 C 15,6 C 87 % 1010,9 hPa 0,0 l/m 0 min 0 min 0 W/m 6,4 km/h (2 Bft) 100,00 %
12.10.2019 22:30 16,9 C 15,6 C 15,6 C 87 % 1010,9 hPa 0,0 l/m 0 min 0 min 0 W/m 6,4 km/h (2 Bft) 100,00 %
12.10.2019 22:32 16,9 C 15,6 C 15,6 C 87 % 1010,9 hPa 0,0 l/m 0 min 0 min 0 W/m 6,4 km/h (2 Bft) 100,00 %
12.10.2019 22:34 16,9 C 15,6 C 15,0 C 87 % 1011,0 hPa 0,0 l/m 0 min 0 min 0 W/m 6,4 km/h (2 Bft) 100,00 %
12.10.2019 22:36 16,8 C 15,6 C 15,0 C 87 % 1010,9 hPa 0,0 l/m 0 min 0 min 0 W/m 6,4 km/h (2 Bft) 97,83 %
12.10.2019 22:38 16,8 C 15,6 C 15,0 C 87 % 1010,9 hPa 0,0 l/m 0 min 0 min 0 W/m 6,4 km/h (2 Bft) 100,00 %
12.10.2019 22:40 16,8 C 15,6 C 15,0 C 87 % 1010,9 hPa 0,0 l/m 0 min 0 min 0 W/m 9,7 km/h (2 Bft) 95,74 %
12.10.2019 22:42 16,8 C 15,6 C 15,0 C 88 % 1011,1 hPa 0,0 l/m 0 min 0 min 0 W/m 6,4 km/h (2 Bft) 97,87 %
12.10.2019 22:44 16,8 C 15,6 C 15,0 C 87 % 1011,1 hPa 0,0 l/m 0 min 0 min 0 W/m 3,2 km/h (1 Bft) 97,87 %
12.10.2019 22:46 16,8 C 15,6 C 15,0 C 87 % 1011,1 hPa 0,0 l/m 0 min 0 min 0 W/m 3,2 km/h (1 Bft) 97,87 %
12.10.2019 22:48 16,8 C 15,6 C 15,0 C 87 % 1011,0 hPa 0,0 l/m 0 min 0 min 0 W/m 6,4 km/h (2 Bft) 97,83 %
12.10.2019 22:50 16,7 C 15,6 C 15,0 C 88 % 1011,0 hPa 0,0 l/m 0 min 0 min 0 W/m 6,4 km/h (2 Bft) 100,00 %
12.10.2019 22:52 16,7 C 15,6 C 15,0 C 88 % 1011,0 hPa 0,0 l/m 0 min 0 min 0 W/m 3,2 km/h (1 Bft) 97,87 %
12.10.2019 22:54 16,7 C 15,6 C 15,0 C 88 % 1011,0 hPa 0,0 l/m 0 min 0 min 0 W/m 6,4 km/h (2 Bft) 97,87 %
12.10.2019 22:56 16,7 C 15,6 C 15,0 C 88 % 1011,0 hPa 0,0 l/m 0 min 0 min 0 W/m 6,4 km/h (2 Bft) 97,87 %
12.10.2019 22:58 16,7 C 15,6 C 15,0 C 88 % 1011,0 hPa 0,0 l/m 0 min 0 min 0 W/m 9,7 km/h (2 Bft) 95,74 %
12.10.2019 23:00 16,7 C 15,6 C 15,0 C 88 % 1011,0 hPa 0,0 l/m 0 min 0 min 0 W/m 6,4 km/h (2 Bft) 93,48 %
12.10.2019 23:02 16,7 C 15,6 C 15,0 C 88 % 1011,0 hPa 0,0 l/m 0 min 0 min 0 W/m 6,4 km/h (2 Bft) 93,88 %
12.10.2019 23:04 16,6 C 15,6 C 15,0 C 88 % 1011,0 hPa 0,0 l/m 0 min 0 min 0 W/m 9,7 km/h (2 Bft) 95,45 %
12.10.2019 23:06 16,6 C 15,6 C 15,0 C 88 % 1011,0 hPa 0,0 l/m 0 min 0 min 0 W/m 9,7 km/h (2 Bft) 95,74 %
12.10.2019 23:08 16,6 C 15,6 C 15,0 C 88 % 1011,0 hPa 0,0 l/m 0 min 0 min 0 W/m 9,7 km/h (2 Bft) 95,74 %
12.10.2019 23:10 16,6 C 15,6 C 15,0 C 88 % 1011,0 hPa 0,0 l/m 0 min 0 min 0 W/m 6,4 km/h (2 Bft) 95,74 %
12.10.2019 23:12 16,6 C 15,6 C 15,0 C 88 % 1011,0 hPa 0,0 l/m 0 min 0 min 0 W/m 6,4 km/h (2 Bft) 95,65 %
12.10.2019 23:14 16,6 C 15,6 C 15,0 C 88 % 1011,0 hPa 0,0 l/m 0 min 0 min 0 W/m 9,7 km/h (2 Bft) 89,36 %
12.10.2019 23:16 16,6 C 15,6 C 15,0 C 88 % 1011,0 hPa 0,0 l/m 0 min 0 min 0 W/m 9,7 km/h (2 Bft) 95,74 %
12.10.2019 23:18 16,6 C 15,6 C 15,0 C 88 % 1011,0 hPa 0,0 l/m 0 min 0 min 0 W/m 6,4 km/h (2 Bft) 91,49 %
12.10.2019 23:20 16,6 C 15,6 C 15,0 C 89 % 1011,0 hPa 0,0 l/m 0 min 0 min 0 W/m 6,4 km/h (2 Bft) 93,62 %
12.10.2019 23:22 16,5 C 15,6 C 15,0 C 89 % 1011,1 hPa 0,0 l/m 0 min 0 min 0 W/m 12,9 km/h (3 Bft) 93,62 %
12.10.2019 23:24 16,5 C 15,6 C 15,0 C 89 % 1011,1 hPa 0,0 l/m 0 min 0 min 0 W/m 12,9 km/h (3 Bft) 93,48 %
12.10.2019 23:26 16,5 C 15,6 C 15,0 C 89 % 1011,1 hPa 0,0 l/m 0 min 0 min 0 W/m 6,4 km/h (2 Bft) 93,62 %
12.10.2019 23:28 16,5 C 15,6 C 15,0 C 89 % 1011,1 hPa 0,0 l/m 0 min 0 min 0 W/m 6,4 km/h (2 Bft) 97,87 %
12.10.2019 23:30 16,5 C 15,6 C 15,0 C 89 % 1011,1 hPa 0,0 l/m 0 min 0 min 0 W/m 6,4 km/h (2 Bft) 95,74 %
12.10.2019 23:32 16,5 C 15,6 C 15,0 C 89 % 1011,0 hPa 0,0 l/m 0 min 0 min 0 W/m 6,4 km/h (2 Bft) 93,62 %
12.10.2019 23:34 16,5 C 15,6 C 15,0 C 89 % 1011,1 hPa 0,0 l/m 0 min 0 min 0 W/m 6,4 km/h (2 Bft) 95,74 %
12.10.2019 23:36 16,4 C 15,6 C 15,0 C 89 % 1011,0 hPa 0,0 l/m 0 min 0 min 0 W/m 6,4 km/h (2 Bft) 95,65 %
12.10.2019 23:38 16,4 C 15,6 C 15,0 C 89 % 1011,0 hPa 0,0 l/m 0 min 0 min 0 W/m 6,4 km/h (2 Bft) 95,74 %
12.10.2019 23:40 16,4 C 15,6 C 15,0 C 89 % 1010,9 hPa 0,0 l/m 0 min 0 min 0 W/m 6,4 km/h (2 Bft) 95,74 %
12.10.2019 23:42 16,4 C 15,6 C 15,0 C 89 % 1010,9 hPa 0,0 l/m 0 min 0 min 0 W/m 12,9 km/h (3 Bft) 95,74 %
12.10.2019 23:44 16,4 C 15,6 C 15,0 C 89 % 1010,9 hPa 0,0 l/m 0 min 0 min 0 W/m 6,4 km/h (2 Bft) 95,74 %
12.10.2019 23:46 16,4 C 15,6 C 15,0 C 89 % 1011,0 hPa 0,0 l/m 0 min 0 min 0 W/m 12,9 km/h (3 Bft) 95,65 %
12.10.2019 23:48 16,4 C 15,6 C 15,0 C 89 % 1011,0 hPa 0,0 l/m 0 min 0 min 0 W/m 12,9 km/h (3 Bft) 95,74 %
12.10.2019 23:50 16,4 C 15,6 C 15,0 C 89 % 1011,0 hPa 0,0 l/m 0 min 0 min 0 W/m 12,9 km/h (3 Bft) 95,74 %
12.10.2019 23:52 16,4 C 15,6 C 15,0 C 89 % 1011,0 hPa 0,0 l/m 0 min 0 min 0 W/m 16,1 km/h (3 Bft) 95,74 %
12.10.2019 23:54 16,4 C 15,6 C 15,0 C 89 % 1011,0 hPa 0,0 l/m 0 min 0 min 0 W/m 6,4 km/h (2 Bft) 95,74 %
12.10.2019 23:56 16,4 C 15,6 C 15,0 C 89 % 1011,0 hPa 0,0 l/m 0 min 0 min 0 W/m 12,9 km/h (3 Bft) 95,74 %
12.10.2019 23:58 16,4 C 15,6 C 15,0 C 89 % 1011,0 hPa 0,0 l/m 0 min 0 min 0 W/m 16,1 km/h (3 Bft) 95,65 %
_ Min-Zeit 06:12 05:54 05:50 14:50 05:46 - - - - 18:04 17:10
Minimum _ 13,3 C 11,1 C 11,1 C 71 % 1008,9 hPa - - - - 0,0 km/h (0 Bft) 50,00 %
_ Max-Zeit 15:00 13:02 13:22 06:16 15:28 00:00 10:38 18:32 13:22 00:38 00:04
Maximum _ 20,1 C 23,9 C 21,1 C 90 % 1011,6 hPa 0,0 l/m 4 min 2 min 654 W/m 48,3 km/h
O (6 Bft)
100,00 %
Durchschnitt _ 17,0 C 16,8 C 15,6 C 82 % 1010,3 hPa #0,0 l/m #4:28 h #2 min. 231 W/m 16,5 km/h (3 Bft) 97,44 %
© 2019 W. Hausmann